Observation data for Colorado City on 02/14/2020      Previous  Date  Next       Current Mesonet Observations  Soil Data  Daily Summary Page  Observations in Plain Language
KCO2 140600Z 11004KT M03/M04 A3034 RMK A01 T10291035  RH  096%=      5-min Rain = 0
KCO2 140601Z 11004KT M03/M04 A3034 RMK A01 T10291035  RH  096%=      5-min Rain = 0
KCO2 140602Z 11003KT M03/M03 A3034 RMK A01 T10291034  RH  096%=      5-min Rain = 0
KCO2 140603Z 12003KT M03/M04 A3034 RMK A01 T10291035  RH  096%=      5-min Rain = 0
KCO2 140604Z 12003KT M03/M03 A3034 RMK A01 T10291034  RH  096%=      5-min Rain = 0
KCO2 140605Z 12004KT M03/M04 A3034 RMK A01 T10291035  RH  096%=      5-min Rain = 0
KCO2 140606Z 13004KT M03/M04 A3034 RMK A01 T10291035  RH  096%=      5-min Rain = 0
KCO2 140607Z 13004KT M03/M04 A3034 RMK A01 T10301036  RH  096%=      5-min Rain = 0
KCO2 140608Z 13004KT M03/M04 A3034 RMK A01 T10311037  RH  096%=      5-min Rain = 0
KCO2 140609Z 13004KT M03/M04 A3034 RMK A01 T10321038  RH  095%=      5-min Rain = 0
KCO2 140610Z 13004KT M03/M04 A3034 RMK A01 T10321038  RH  096%=      5-min Rain = 0
KCO2 140611Z 13004KT M03/M04 A3033 RMK A01 T10331039  RH  096%=      5-min Rain = 0
KCO2 140612Z 12004KT M03/M04 A3033 RMK A01 T10331039  RH  096%=      5-min Rain = 0
KCO2 140613Z 13004KT M03/M04 A3033 RMK A01 T10331039  RH  096%=      5-min Rain = 0
KCO2 140614Z 12003KT M03/M04 A3033 RMK A01 T10331039  RH  096%=      5-min Rain = 0
KCO2 140615Z 12003KT M03/M04 A3033 RMK A01 T10331039  RH  096%=      5-min Rain = 0
KCO2 140616Z 12003KT M03/M04 A3033 RMK A01 T10331039  RH  096%=      5-min Rain = 0
KCO2 140617Z 12003KT M03/M04 A3033 RMK A01 T10331038  RH  096%=      5-min Rain = 0
KCO2 140618Z 12003KT M03/M04 A3033 RMK A01 T10321038  RH  096%=      5-min Rain = 0
KCO2 140619Z 12003KT M03/M04 A3033 RMK A01 T10321037  RH  096%=      5-min Rain = 0
KCO2 140620Z 12003KT M03/M04 A3033 RMK A01 T10311036  RH  096%=      5-min Rain = 0
KCO2 140621Z 12003KT M03/M04 A3033 RMK A01 T10301036  RH  096%=      5-min Rain = 0
KCO2 140622Z 12003KT M03/M04 A3033 RMK A01 T10301035  RH  096%=      5-min Rain = 0
KCO2 140623Z 12003KT M03/M04 A3033 RMK A01 T10301035  RH  096%=      5-min Rain = 0
KCO2 140624Z 12003KT M03/M04 A3033 RMK A01 T10291035  RH  096%=      5-min Rain = 0
KCO2 140625Z 12003KT M03/M04 A3033 RMK A01 T10291035  RH  096%=      5-min Rain = 0
KCO2 140626Z 11003KT M03/M04 A3033 RMK A01 T10291035  RH  096%=      5-min Rain = 0
KCO2 140627Z 11003KT M03/M03 A3033 RMK A01 T10291034  RH  096%=      5-min Rain = 0
KCO2 140628Z 10003KT M03/M03 A3033 RMK A01 T10291034  RH  096%=      5-min Rain = 0
KCO2 140629Z 10003KT M03/M03 A3033 RMK A01 T10291034  RH  096%=      5-min Rain = 0
KCO2 140630Z 10003KT M03/M03 A3033 RMK A01 T10291034  RH  096%=      5-min Rain = 0
KCO2 140631Z 10003KT M03/M03 A3033 RMK A01 T10291034  RH  096%=      5-min Rain = 0
KCO2 140632Z 10004KT M03/M03 A3033 RMK A01 T10291034  RH  096%=      5-min Rain = 0
KCO2 140633Z 11004KT M03/M03 A3033 RMK A01 T10291034  RH  096%=      5-min Rain = 0
KCO2 140634Z 11004KT M03/M03 A3033 RMK A01 T10281033  RH  096%=      5-min Rain = 0
KCO2 140635Z 11004KT M03/M03 A3033 RMK A01 T10271032  RH  096%=      5-min Rain = 0
KCO2 140636Z 11004KT M03/M03 A3033 RMK A01 T10261031  RH  096%=      5-min Rain = 0
KCO2 140637Z 11004KT M03/M03 A3033 RMK A01 T10261031  RH  096%=      5-min Rain = 0
KCO2 140638Z 11004KT M03/M03 A3033 RMK A01 T10261031  RH  096%=      5-min Rain = 0
KCO2 140639Z 11004KT M03/M03 A3033 RMK A01 T10261032  RH  096%=      5-min Rain = 0
KCO2 140640Z 11004KT M03/M03 A3033 RMK A01 T10261032  RH  096%=      5-min Rain = 0
KCO2 140641Z 11004KT M03/M03 A3033 RMK A01 T10261032  RH  096%=      5-min Rain = 0
KCO2 140642Z 11004KT M03/M03 A3033 RMK A01 T10271032  RH  096%=      5-min Rain = 0
KCO2 140643Z 11004KT M03/M03 A3033 RMK A01 T10261032  RH  096%=      5-min Rain = 0
KCO2 140644Z 11004KT M03/M03 A3033 RMK A01 T10271032  RH  096%=      5-min Rain = 0
KCO2 140645Z 11004KT M03/M03 A3033 RMK A01 T10271033  RH  096%=      5-min Rain = 0
KCO2 140646Z 11004KT M03/M03 A3033 RMK A01 T10271033  RH  096%=      5-min Rain = 0
KCO2 140647Z 11004KT M03/M03 A3033 RMK A01 T10281034  RH  096%=      5-min Rain = 0
KCO2 140648Z 11004KT M03/M03 A3033 RMK A01 T10281034  RH  096%=      5-min Rain = 0
KCO2 140649Z 11004KT M03/M03 A3033 RMK A01 T10281034  RH  096%=      5-min Rain = 0
KCO2 140650Z 11004KT M03/M03 A3033 RMK A01 T10281034  RH  096%=      5-min Rain = 0
KCO2 140651Z 11004KT M03/M03 A3034 RMK A01 T10281034  RH  096%=      5-min Rain = 0
KCO2 140652Z 11004KT M03/M03 A3034 RMK A01 T10281034  RH  096%=      5-min Rain = 0
KCO2 140653Z 11004KT M03/M03 A3034 RMK A01 T10281034  RH  096%=      5-min Rain = 0
KCO2 140654Z 11004KT M03/M03 A3034 RMK A01 T10281034  RH  096%=      5-min Rain = 0
KCO2 140655Z 11004KT M03/M03 A3034 RMK A01 T10291034  RH  096%=      5-min Rain = 0
KCO2 140656Z 11004KT M03/M03 A3034 RMK A01 T10281034  RH  096%=      5-min Rain = 0
KCO2 140657Z 11004KT M03/M03 A3034 RMK A01 T10281033  RH  096%=      5-min Rain = 0
KCO2 140658Z 11004KT M03/M03 A3034 RMK A01 T10281034  RH  096%=      5-min Rain = 0
KCO2 140659Z 12004KT M03/M03 A3034 RMK A01 T10281034  RH  096%=      5-min Rain = 0
KCO2 140700Z 12004KT M03/M03 A3034 RMK A01 T10281034  RH  096%=      5-min Rain = 0
KCO2 140701Z 12004KT M03/M04 A3034 RMK A01 T10291035  RH  096%=      5-min Rain = 0
KCO2 140702Z 12004KT M03/M04 A3034 RMK A01 T10291035  RH  096%=      5-min Rain = 0
KCO2 140703Z 12004KT M03/M03 A3034 RMK A01 T10291034  RH  096%=      5-min Rain = 0
KCO2 140704Z 13003KT M03/M04 A3034 RMK A01 T10291035  RH  096%=      5-min Rain = 0
KCO2 140705Z 13004KT M03/M03 A3034 RMK A01 T10291034  RH  096%=      5-min Rain = 0
KCO2 140706Z 14004KT M03/M03 A3034 RMK A01 T10291034  RH  096%=      5-min Rain = 0
KCO2 140707Z 14004KT M03/M03 A3034 RMK A01 T10281033  RH  096%=      5-min Rain = 0
KCO2 140708Z 14004KT M03/M03 A3034 RMK A01 T10271032  RH  096%=      5-min Rain = 0
KCO2 140709Z 14004KT M03/M03 A3034 RMK A01 T10271032  RH  096%=      5-min Rain = 0
KCO2 140710Z 15004KT M03/M03 A3034 RMK A01 T10271032  RH  096%=      5-min Rain = 0
KCO2 140711Z 15004KT M03/M03 A3034 RMK A01 T10291034  RH  096%=      5-min Rain = 0
KCO2 140712Z 14004KT M03/M04 A3034 RMK A01 T10301036  RH  096%=      5-min Rain = 0
KCO2 140713Z 14004KT M03/M04 A3034 RMK A01 T10321038  RH  096%=      5-min Rain = 0
KCO2 140714Z 14004KT M03/M04 A3034 RMK A01 T10321038  RH  096%=      5-min Rain = 0
KCO2 140715Z 14004KT M03/M04 A3034 RMK A01 T10321038  RH  096%=      5-min Rain = 0
KCO2 140716Z 14004KT M03/M04 A3034 RMK A01 T10321037  RH  096%=      5-min Rain = 0
KCO2 140717Z 14004KT M03/M04 A3034 RMK A01 T10321037  RH  096%=      5-min Rain = 0
KCO2 140718Z 14004KT M03/M04 A3034 RMK A01 T10311037  RH  096%=      5-min Rain = 0
KCO2 140719Z 15004KT M03/M04 A3034 RMK A01 T10311037  RH  096%=      5-min Rain = 0
KCO2 140720Z 15004KT M03/M04 A3034 RMK A01 T10311036  RH  096%=      5-min Rain = 0
KCO2 140721Z 15004KT M03/M04 A3034 RMK A01 T10321037  RH  096%=      5-min Rain = 0
KCO2 140722Z 15003KT M03/M04 A3034 RMK A01 T10311037  RH  096%=      5-min Rain = 0
KCO2 140723Z 15003KT M03/M04 A3034 RMK A01 T10311037  RH  096%=      5-min Rain = 0
KCO2 140724Z 16003KT M03/M04 A3034 RMK A01 T10311036  RH  096%=      5-min Rain = 0
KCO2 140725Z 16003KT M03/M03 A3034 RMK A01 T10301034  RH  097%=      5-min Rain = 0
KCO2 140726Z 16003KT M03/M03 A3034 RMK A01 T10291034  RH  097%=      5-min Rain = 0
KCO2 140727Z 16003KT M03/M03 A3034 RMK A01 T10291034  RH  096%=      5-min Rain = 0
KCO2 140728Z 16003KT M03/M04 A3034 RMK A01 T10301035  RH  096%=      5-min Rain = 0
KCO2 140729Z 16004KT M03/M03 A3034 RMK A01 T10291034  RH  097%=      5-min Rain = 0
KCO2 140730Z 16004KT M03/M03 A3034 RMK A01 T10291033  RH  097%=      5-min Rain = 0
KCO2 140731Z 15004KT M03/M03 A3034 RMK A01 T10281033  RH  097%=      5-min Rain = 0
KCO2 140732Z 15004KT M03/M03 A3034 RMK A01 T10281032  RH  097%=      5-min Rain = 0
KCO2 140733Z 15004KT M03/M03 A3034 RMK A01 T10281032  RH  097%=      5-min Rain = 0
KCO2 140734Z 15003KT M03/M03 A3034 RMK A01 T10291034  RH  097%=      5-min Rain = 0
KCO2 140735Z 15003KT M03/M04 A3034 RMK A01 T10301035  RH  096%=      5-min Rain = 0
KCO2 140736Z 15003KT M03/M04 A3035 RMK A01 T10301035  RH  097%=      5-min Rain = 0
KCO2 140737Z 15002KT M03/M04 A3035 RMK A01 T10301035  RH  097%=      5-min Rain = 0
KCO2 140738Z 15002KT M03/M04 A3035 RMK A01 T10301035  RH  097%=      5-min Rain = 0
KCO2 140739Z 16002KT M03/M04 A3035 RMK A01 T10301035  RH  097%=      5-min Rain = 0
KCO2 140740Z 16002KT M03/M04 A3035 RMK A01 T10311036  RH  097%=      5-min Rain = 0
KCO2 140741Z 16002KT M03/M04 A3035 RMK A01 T10311036  RH  097%=      5-min Rain = 0
KCO2 140742Z 16002KT M03/M04 A3035 RMK A01 T10321036  RH  097%=      5-min Rain = 0
KCO2 140743Z 17001KT M03/M04 A3035 RMK A01 T10311036  RH  097%=      5-min Rain = 0
KCO2 140744Z 17001KT M03/M04 A3035 RMK A01 T10311035  RH  097%=      5-min Rain = 0
KCO2 140745Z 17001KT M03/M03 A3035 RMK A01 T10301034  RH  097%=      5-min Rain = 0
KCO2 140746Z 17001KT M03/M03 A3035 RMK A01 T10301034  RH  097%=      5-min Rain = 0
KCO2 140747Z 17001KT M03/M04 A3035 RMK A01 T10311035  RH  097%=      5-min Rain = 0
KCO2 140748Z 17001KT M03/M04 A3035 RMK A01 T10311036  RH  097%=      5-min Rain = 0
KCO2 140749Z 18001KT M03/M04 A3035 RMK A01 T10311035  RH  097%=      5-min Rain = 0
KCO2 140750Z 19001KT M03/M03 A3035 RMK A01 T10301034  RH  097%=      5-min Rain = 0
KCO2 140751Z 19001KT M03/M03 A3035 RMK A01 T10301034  RH  097%=      5-min Rain = 0
KCO2 140752Z 19001KT M03/M04 A3035 RMK A01 T10311036  RH  097%=      5-min Rain = 0
KCO2 140753Z 19001KT M03/M04 A3035 RMK A01 T10321036  RH  097%=      5-min Rain = 0
KCO2 140754Z 19001KT M03/M04 A3035 RMK A01 T10331037  RH  097%=      5-min Rain = 0
KCO2 140755Z 19001KT M03/M04 A3035 RMK A01 T10331037  RH  097%=      5-min Rain = 0
KCO2 140756Z 19001KT M03/M04 A3035 RMK A01 T10331038  RH  097%=      5-min Rain = 0
KCO2 140757Z 19001KT M03/M04 A3035 RMK A01 T10341038  RH  097%=      5-min Rain = 0
KCO2 140758Z 19001KT M03/M04 A3035 RMK A01 T10341038  RH  097%=      5-min Rain = 0
KCO2 140759Z 18001KT M03/M04 A3035 RMK A01 T10341038  RH  097%=      5-min Rain = 0
KCO2 140800Z 18001KT M03/M04 A3035 RMK A01 T10341038  RH  097%=      5-min Rain = 0
KCO2 140801Z 18001KT M03/M04 A3035 RMK A01 T10341038  RH  097%=      5-min Rain = 0
KCO2 140802Z 18001KT M03/M04 A3035 RMK A01 T10331037  RH  097%=      5-min Rain = 0
KCO2 140803Z 18001KT M03/M04 A3035 RMK A01 T10331037  RH  097%=      5-min Rain = 0
KCO2 140804Z 18000KT M03/M04 A3035 RMK A01 T10331037  RH  097%=      5-min Rain = 0
KCO2 140805Z 00000KT M03/M04 A3035 RMK A01 T10331037  RH  097%=      5-min Rain = 0
KCO2 140806Z 00000KT M03/M04 A3035 RMK A01 T10331037  RH  097%=      5-min Rain = 0
KCO2 140807Z 00000KT M03/M04 A3035 RMK A01 T10331037  RH  097%=      5-min Rain = 0
KCO2 140808Z 00000KT M03/M04 A3035 RMK A01 T10331037  RH  097%=      5-min Rain = 0
KCO2 140809Z 00000KT M04/M04 A3035 RMK A01 T10351039  RH  097%=      5-min Rain = 0
KCO2 140810Z 00000KT M04/M04 A3035 RMK A01 T10371041  RH  097%=      5-min Rain = 0
KCO2 140811Z 00000KT M04/M04 A3035 RMK A01 T10381042  RH  097%=      5-min Rain = 0
KCO2 140812Z 00000KT M04/M04 A3035 RMK A01 T10381042  RH  097%=      5-min Rain = 0
KCO2 140813Z 00000KT M04/M04 A3035 RMK A01 T10391043  RH  097%=      5-min Rain = 0
KCO2 140814Z 00000KT M04/M04 A3035 RMK A01 T10391043  RH  097%=      5-min Rain = 0
KCO2 140815Z 00000KT M04/M04 A3035 RMK A01 T10391043  RH  097%=      5-min Rain = 0
KCO2 140816Z 17000KT M04/M04 A3035 RMK A01 T10401044  RH  097%=      5-min Rain = 0
KCO2 140817Z 17000KT M04/M05 A3035 RMK A01 T10401045  RH  097%=      5-min Rain = 0
KCO2 140818Z 17000KT M04/M04 A3035 RMK A01 T10401044  RH  097%=      5-min Rain = 0
KCO2 140819Z 00000KT M04/M05 A3035 RMK A01 T10401045  RH  097%=      5-min Rain = 0
KCO2 140820Z 00000KT M04/M05 A3035 RMK A01 T10411046  RH  097%=      5-min Rain = 0
KCO2 140821Z 00000KT M04/M05 A3035 RMK A01 T10421046  RH  097%=      5-min Rain = 0
KCO2 140822Z 00000KT M04/M05 A3035 RMK A01 T10421046  RH  097%=      5-min Rain = 0
KCO2 140823Z 00000KT M04/M05 A3035 RMK A01 T10421047  RH  097%=      5-min Rain = 0
KCO2 140824Z 00000KT M04/M05 A3035 RMK A01 T10421047  RH  097%=      5-min Rain = 0
KCO2 140825Z 00000KT M04/M05 A3035 RMK A01 T10421047  RH  097%=      5-min Rain = 0
KCO2 140826Z 00000KT M04/M05 A3034 RMK A01 T10421047  RH  097%=      5-min Rain = 0
KCO2 140827Z 00000KT M04/M05 A3034 RMK A01 T10421046  RH  097%=      5-min Rain = 0
KCO2 140828Z 00000KT M04/M05 A3034 RMK A01 T10411045  RH  097%=      5-min Rain = 0
KCO2 140829Z 00000KT M04/M05 A3034 RMK A01 T10401045  RH  097%=      5-min Rain = 0
KCO2 140830Z 00000KT M04/M05 A3034 RMK A01 T10401045  RH  097%=      5-min Rain = 0
KCO2 140831Z 00000KT M04/M04 A3034 RMK A01 T10391044  RH  097%=      5-min Rain = 0
KCO2 140832Z 00000KT M04/M04 A3034 RMK A01 T10381042  RH  097%=      5-min Rain = 0
KCO2 140833Z 00000KT M04/M04 A3034 RMK A01 T10361040  RH  097%=      5-min Rain = 0
KCO2 140834Z 00000KT M04/M04 A3034 RMK A01 T10351039  RH  097%=      5-min Rain = 0
KCO2 140835Z 00000KT M03/M04 A3034 RMK A01 T10341038  RH  097%=      5-min Rain = 0
KCO2 140836Z 00000KT M03/M04 A3034 RMK A01 T10341037  RH  097%=      5-min Rain = 0
KCO2 140837Z 00000KT M03/M04 A3034 RMK A01 T10331037  RH  097%=      5-min Rain = 0
KCO2 140838Z 00000KT M03/M04 A3034 RMK A01 T10341038  RH  097%=      5-min Rain = 0
KCO2 140839Z 00000KT M04/M04 A3034 RMK A01 T10351039  RH  097%=      5-min Rain = 0
KCO2 140840Z 04001KT M04/M04 A3034 RMK A01 T10361041  RH  097%=      5-min Rain = 0
KCO2 140841Z 05001KT M04/M04 A3034 RMK A01 T10371042  RH  097%=      5-min Rain = 0
KCO2 140842Z 05001KT M04/M04 A3034 RMK A01 T10381043  RH  097%=      5-min Rain = 0
KCO2 140843Z 05001KT M04/M04 A3034 RMK A01 T10381043  RH  097%=      5-min Rain = 0
KCO2 140844Z 05000KT M04/M04 A3034 RMK A01 T10381042  RH  097%=      5-min Rain = 0
KCO2 140845Z 00000KT M04/M04 A3034 RMK A01 T10371041  RH  097%=      5-min Rain = 0
KCO2 140846Z 00000KT M04/M04 A3034 RMK A01 T10371041  RH  097%=      5-min Rain = 0
KCO2 140847Z 00000KT M04/M04 A3034 RMK A01 T10361040  RH  097%=      5-min Rain = 0
KCO2 140848Z 00000KT M04/M04 A3034 RMK A01 T10351040  RH  097%=      5-min Rain = 0
KCO2 140849Z 00000KT M04/M04 A3034 RMK A01 T10351039  RH  097%=      5-min Rain = 0
KCO2 140850Z 00000KT M04/M04 A3034 RMK A01 T10351039  RH  097%=      5-min Rain = 0
KCO2 140851Z 00000KT M04/M04 A3034 RMK A01 T10371041  RH  097%=      5-min Rain = 0
KCO2 140852Z 00000KT M04/M04 A3034 RMK A01 T10371041  RH  097%=      5-min Rain = 0
KCO2 140853Z 00000KT M04/M04 A3034 RMK A01 T10371042  RH  097%=      5-min Rain = 0
KCO2 140854Z 00000KT M04/M04 A3034 RMK A01 T10381042  RH  097%=      5-min Rain = 0
KCO2 140855Z 00000KT M04/M04 A3034 RMK A01 T10391043  RH  097%=      5-min Rain = 0
KCO2 140856Z 00000KT M04/M04 A3034 RMK A01 T10391044  RH  097%=      5-min Rain = 0
KCO2 140857Z 00000KT M04/M04 A3034 RMK A01 T10401044  RH  097%=      5-min Rain = 0
KCO2 140858Z 00000KT M04/M04 A3034 RMK A01 T10401044  RH  097%=      5-min Rain = 0
KCO2 140859Z 00000KT M04/M05 A3034 RMK A01 T10401045  RH  097%=      5-min Rain = 0
KCO2 140900Z 00000KT M04/M05 A3034 RMK A01 T10401045  RH  097%=      5-min Rain = 0
KCO2 140901Z 00000KT M04/M05 A3034 RMK A01 T10411045  RH  097%=      5-min Rain = 0
KCO2 140902Z 00000KT M04/M05 A3034 RMK A01 T10411046  RH  097%=      5-min Rain = 0
KCO2 140903Z 00000KT M04/M05 A3034 RMK A01 T10411045  RH  097%=      5-min Rain = 0
KCO2 140904Z 00000KT M04/M05 A3034 RMK A01 T10401045  RH  097%=      5-min Rain = 0
KCO2 140905Z 00000KT M04/M04 A3034 RMK A01 T10391044  RH  097%=      5-min Rain = 0
KCO2 140906Z 00000KT M04/M04 A3034 RMK A01 T10381043  RH  097%=      5-min Rain = 0
KCO2 140907Z 00000KT M04/M04 A3034 RMK A01 T10381042  RH  097%=      5-min Rain = 0
KCO2 140908Z 00000KT M04/M04 A3034 RMK A01 T10371041  RH  097%=      5-min Rain = 0
KCO2 140909Z 00000KT M04/M04 A3034 RMK A01 T10371041  RH  097%=      5-min Rain = 0
KCO2 140910Z 00000KT M04/M04 A3034 RMK A01 T10371041  RH  097%=      5-min Rain = 0
KCO2 140911Z 00000KT M04/M04 A3035 RMK A01 T10371041  RH  097%=      5-min Rain = 0
KCO2 140912Z 00000KT M04/M04 A3035 RMK A01 T10371041  RH  097%=      5-min Rain = 0
KCO2 140913Z 07000KT M04/M04 A3035 RMK A01 T10371041  RH  097%=      5-min Rain = 0
KCO2 140914Z 07001KT M04/M04 A3035 RMK A01 T10381042  RH  097%=      5-min Rain = 0
KCO2 140915Z 07001KT M04/M04 A3034 RMK A01 T10391043  RH  097%=      5-min Rain = 0
KCO2 140916Z 07001KT M04/M05 A3034 RMK A01 T10401045  RH  097%=      5-min Rain = 0
KCO2 140917Z 06001KT M04/M05 A3034 RMK A01 T10411046  RH  096%=      5-min Rain = 0
KCO2 140918Z 05002KT M04/M05 A3034 RMK A01 T10421046  RH  096%=      5-min Rain = 0
KCO2 140919Z 05002KT M04/M05 A3034 RMK A01 T10421047  RH  096%=      5-min Rain = 0
KCO2 140920Z 04002KT M04/M05 A3034 RMK A01 T10421047  RH  096%=      5-min Rain = 0
KCO2 140921Z 04002KT M04/M05 A3034 RMK A01 T10431048  RH  096%=      5-min Rain = 0
KCO2 140922Z 04002KT M04/M05 A3034 RMK A01 T10431048  RH  096%=      5-min Rain = 0
KCO2 140923Z 04002KT M04/M05 A3034 RMK A01 T10431048  RH  096%=      5-min Rain = 0
KCO2 140924Z 04003KT M04/M05 A3034 RMK A01 T10431048  RH  096%=      5-min Rain = 0
KCO2 140925Z 04003KT M04/M05 A3034 RMK A01 T10431048  RH  096%=      5-min Rain = 0
KCO2 140926Z 04003KT M04/M05 A3034 RMK A01 T10431048  RH  096%=      5-min Rain = 0
KCO2 140927Z 04003KT M04/M05 A3034 RMK A01 T10431048  RH  096%=      5-min Rain = 0
KCO2 140928Z 04003KT M04/M05 A3034 RMK A01 T10431048  RH  096%=      5-min Rain = 0
KCO2 140929Z 05003KT M04/M05 A3034 RMK A01 T10431048  RH  096%=      5-min Rain = 0
KCO2 140930Z 05004KT M04/M05 A3034 RMK A01 T10441049  RH  096%=      5-min Rain = 0
KCO2 140931Z 05004KT M04/M05 A3034 RMK A01 T10431048  RH  096%=      5-min Rain = 0
KCO2 140932Z 06004KT M04/M05 A3034 RMK A01 T10431048  RH  096%=      5-min Rain = 0
KCO2 140933Z 06004KT M04/M05 A3034 RMK A01 T10441049  RH  096%=      5-min Rain = 0
KCO2 140934Z 05003KT M04/M05 A3034 RMK A01 T10441049  RH  096%=      5-min Rain = 0
KCO2 140935Z 05004KT M04/M05 A3034 RMK A01 T10431049  RH  096%=      5-min Rain = 0
KCO2 140936Z 06004KT M04/M05 A3034 RMK A01 T10431049  RH  096%=      5-min Rain = 0
KCO2 140937Z 06003KT M04/M05 A3034 RMK A01 T10441049  RH  096%=      5-min Rain = 0
KCO2 140938Z 06004KT M04/M05 A3034 RMK A01 T10431049  RH  096%=      5-min Rain = 0
KCO2 140939Z 06004KT M04/M05 A3034 RMK A01 T10441049  RH  096%=      5-min Rain = 0
KCO2 140940Z 06004KT M04/M05 A3034 RMK A01 T10431048  RH  096%=      5-min Rain = 0
KCO2 140941Z 05004KT M04/M05 A3034 RMK A01 T10431049  RH  096%=      5-min Rain = 0
KCO2 140942Z 05004KT M04/M05 A3034 RMK A01 T10431049  RH  096%=      5-min Rain = 0
KCO2 140943Z 04004KT M04/M05 A3034 RMK A01 T10441049  RH  096%=      5-min Rain = 0
KCO2 140944Z 04004KT M04/M05 A3034 RMK A01 T10441049  RH  096%=      5-min Rain = 0
KCO2 140945Z 03004KT M04/M05 A3034 RMK A01 T10441049  RH  096%=      5-min Rain = 0
KCO2 140946Z 04004KT M04/M05 A3034 RMK A01 T10441050  RH  096%=      5-min Rain = 0
KCO2 140947Z 04004KT M04/M05 A3034 RMK A01 T10441049  RH  096%=      5-min Rain = 0
KCO2 140948Z 05004KT M04/M05 A3034 RMK A01 T10441049  RH  096%=      5-min Rain = 0
KCO2 140949Z 05003KT M04/M05 A3034 RMK A01 T10441050  RH  096%=      5-min Rain = 0
KCO2 140950Z 05003KT M04/M05 A3034 RMK A01 T10441050  RH  096%=      5-min Rain = 0
KCO2 140951Z 05003KT M04/M05 A3034 RMK A01 T10441050  RH  096%=      5-min Rain = 0
KCO2 140952Z 06003KT M04/M05 A3034 RMK A01 T10441050  RH  096%=      5-min Rain = 0
KCO2 140953Z 06003KT M04/M05 A3034 RMK A01 T10441050  RH  096%=      5-min Rain = 0
KCO2 140954Z 06003KT M04/M05 A3034 RMK A01 T10441050  RH  096%=      5-min Rain = 0
KCO2 140955Z 05003KT M04/M05 A3034 RMK A01 T10441050  RH  096%=      5-min Rain = 0
KCO2 140956Z 05004KT M04/M05 A3034 RMK A01 T10441050  RH  096%=      5-min Rain = 0
KCO2 140957Z 03004KT M04/M05 A3034 RMK A01 T10441050  RH  096%=      5-min Rain = 0
KCO2 140958Z 03004KT M04/M05 A3034 RMK A01 T10441050  RH  096%=      5-min Rain = 0
KCO2 140959Z 04004KT M05/M05 A3034 RMK A01 T10451051  RH  095%=      5-min Rain = 0
KCO2 141000Z 04004KT M05/M05 A3034 RMK A01 T10451051  RH  095%=      5-min Rain = 0
KCO2 141001Z 05004KT M05/M05 A3034 RMK A01 T10451051  RH  095%=      5-min Rain = 0
KCO2 141002Z 05004KT M05/M05 A3034 RMK A01 T10451051  RH  095%=      5-min Rain = 0
KCO2 141003Z 06004KT M05/M05 A3034 RMK A01 T10451051  RH  095%=      5-min Rain = 0
KCO2 141004Z 06004KT M04/M05 A3034 RMK A01 T10441050  RH  096%=      5-min Rain = 0
KCO2 141005Z 06004KT M04/M05 A3034 RMK A01 T10441050  RH  096%=      5-min Rain = 0
KCO2 141006Z 05004KT M04/M05 A3034 RMK A01 T10441050  RH  095%=      5-min Rain = 0
KCO2 141007Z 05004KT M04/M05 A3034 RMK A01 T10441050  RH  095%=      5-min Rain = 0
KCO2 141008Z 04004KT M04/M05 A3034 RMK A01 T10441051  RH  095%=      5-min Rain = 0
KCO2 141009Z 04004KT M04/M05 A3034 RMK A01 T10441051  RH  095%=      5-min Rain = 0
KCO2 141010Z 04003KT M05/M05 A3034 RMK A01 T10451051  RH  095%=      5-min Rain = 0
KCO2 141011Z 05004KT M05/M05 A3034 RMK A01 T10451051  RH  095%=      5-min Rain = 0
KCO2 141012Z 05004KT M05/M05 A3034 RMK A01 T10451051  RH  095%=      5-min Rain = 0
KCO2 141013Z 05004KT M05/M05 A3034 RMK A01 T10451052  RH  095%=      5-min Rain = 0
KCO2 141014Z 05004KT M05/M05 A3034 RMK A01 T10451052  RH  095%=      5-min Rain = 0
KCO2 141015Z 05004KT M05/M05 A3034 RMK A01 T10461052  RH  095%=      5-min Rain = 0
KCO2 141016Z 04004KT M05/M05 A3034 RMK A01 T10451052  RH  095%=      5-min Rain = 0
KCO2 141017Z 04004KT M05/M05 A3034 RMK A01 T10451052  RH  095%=      5-min Rain = 0
KCO2 141018Z 04004KT M05/M05 A3034 RMK A01 T10451052  RH  095%=      5-min Rain = 0
KCO2 141019Z 04004KT M05/M05 A3034 RMK A01 T10451051  RH  095%=      5-min Rain = 0
KCO2 141020Z 05004KT M04/M05 A3034 RMK A01 T10441051  RH  095%=      5-min Rain = 0
KCO2 141021Z 04004KT M05/M05 A3034 RMK A01 T10451051  RH  095%=      5-min Rain = 0
KCO2 141022Z 04004KT M04/M05 A3034 RMK A01 T10441051  RH  095%=      5-min Rain = 0
KCO2 141023Z 04004KT M04/M05 A3034 RMK A01 T10441051  RH  095%=      5-min Rain = 0
KCO2 141024Z 04003KT M04/M05 A3034 RMK A01 T10441051  RH  095%=      5-min Rain = 0
KCO2 141025Z 05003KT M04/M05 A3034 RMK A01 T10441051  RH  095%=      5-min Rain = 0
KCO2 141026Z 05003KT M04/M05 A3034 RMK A01 T10441051  RH  095%=      5-min Rain = 0
KCO2 141027Z 05003KT M04/M05 A3034 RMK A01 T10431050  RH  095%=      5-min Rain = 0
KCO2 141028Z 05003KT M04/M05 A3034 RMK A01 T10431050  RH  095%=      5-min Rain = 0
KCO2 141029Z 05004KT M04/M05 A3034 RMK A01 T10431050  RH  095%=      5-min Rain = 0
KCO2 141030Z 05004KT M04/M05 A3034 RMK A01 T10431049  RH  095%=      5-min Rain = 0
KCO2 141031Z 05004KT M04/M05 A3034 RMK A01 T10421048  RH  095%=      5-min Rain = 0
KCO2 141032Z 05004KT M04/M05 A3034 RMK A01 T10421048  RH  095%=      5-min Rain = 0
KCO2 141033Z 05004KT M04/M05 A3034 RMK A01 T10421048  RH  095%=      5-min Rain = 0
KCO2 141034Z 05004KT M04/M05 A3034 RMK A01 T10421048  RH  095%=      5-min Rain = 0
KCO2 141035Z 05004KT M04/M05 A3034 RMK A01 T10421049  RH  095%=      5-min Rain = 0
KCO2 141036Z 04004KT M04/M05 A3034 RMK A01 T10421049  RH  095%=      5-min Rain = 0
KCO2 141037Z 04005KT M04/M05 A3034 RMK A01 T10421049  RH  095%=      5-min Rain = 0
KCO2 141038Z 04005KT M04/M05 A3034 RMK A01 T10421049  RH  095%=      5-min Rain = 0
KCO2 141039Z 05005KT M04/M05 A3034 RMK A01 T10421049  RH  095%=      5-min Rain = 0
KCO2 141040Z 05005KT M04/M05 A3034 RMK A01 T10421049  RH  095%=      5-min Rain = 0
KCO2 141041Z 05005KT M04/M05 A3034 RMK A01 T10421049  RH  095%=      5-min Rain = 0
KCO2 141042Z 05005KT M04/M05 A3034 RMK A01 T10421048  RH  095%=      5-min Rain = 0
KCO2 141043Z 05005KT M04/M05 A3034 RMK A01 T10411048  RH  095%=      5-min Rain = 0
KCO2 141044Z 05005KT M04/M05 A3034 RMK A01 T10411048  RH  095%=      5-min Rain = 0
KCO2 141045Z 05004KT M04/M05 A3034 RMK A01 T10411048  RH  095%=      5-min Rain = 0
KCO2 141046Z 05004KT M04/M05 A3034 RMK A01 T10411048  RH  095%=      5-min Rain = 0
KCO2 141047Z 05004KT M04/M05 A3034 RMK A01 T10411048  RH  095%=      5-min Rain = 0
KCO2 141048Z 05004KT M04/M05 A3034 RMK A01 T10401047  RH  095%=      5-min Rain = 0
KCO2 141049Z 05004KT M04/M05 A3034 RMK A01 T10401046  RH  095%=      5-min Rain = 0
KCO2 141050Z 05004KT M04/M05 A3034 RMK A01 T10391046  RH  095%=      5-min Rain = 0
KCO2 141051Z 06004KT M04/M05 A3034 RMK A01 T10391046  RH  095%=      5-min Rain = 0
KCO2 141052Z 06004KT M04/M05 A3034 RMK A01 T10391046  RH  095%=      5-min Rain = 0
KCO2 141053Z 06004KT M04/M05 A3034 RMK A01 T10391045  RH  095%=      5-min Rain = 0
KCO2 141054Z 06004KT M04/M05 A3034 RMK A01 T10381045  RH  095%=      5-min Rain = 0
KCO2 141055Z 06004KT M04/M05 A3034 RMK A01 T10381045  RH  095%=      5-min Rain = 0
KCO2 141056Z 06004KT M04/M04 A3034 RMK A01 T10381044  RH  095%=      5-min Rain = 0
KCO2 141057Z 06004KT M04/M04 A3034 RMK A01 T10371044  RH  095%=      5-min Rain = 0
KCO2 141058Z 06003KT M04/M04 A3035 RMK A01 T10371044  RH  095%=      5-min Rain = 0
KCO2 141059Z 06003KT M04/M04 A3035 RMK A01 T10371043  RH  095%=      5-min Rain = 0
KCO2 141100Z 05003KT M04/M04 A3035 RMK A01 T10361043  RH  095%=      5-min Rain = 0
KCO2 141101Z 05003KT M04/M04 A3035 RMK A01 T10361043  RH  095%=      5-min Rain = 0
KCO2 141102Z 05004KT M04/M04 A3035 RMK A01 T10351042  RH  095%=      5-min Rain = 0
KCO2 141103Z 05004KT M04/M04 A3035 RMK A01 T10351041  RH  095%=      5-min Rain = 0
KCO2 141104Z 05004KT M03/M04 A3035 RMK A01 T10341041  RH  095%=      5-min Rain = 0
KCO2 141105Z 05004KT M03/M04 A3035 RMK A01 T10341041  RH  095%=      5-min Rain = 0
KCO2 141106Z 05004KT M03/M04 A3035 RMK A01 T10341040  RH  095%=      5-min Rain = 0
KCO2 141107Z 05004KT M03/M04 A3035 RMK A01 T10341041  RH  095%=      5-min Rain = 0
KCO2 141108Z 05004KT M03/M04 A3035 RMK A01 T10331040  RH  095%=      5-min Rain = 0
KCO2 141109Z 05004KT M03/M04 A3035 RMK A01 T10331040  RH  095%=      5-min Rain = 0
KCO2 141110Z 05004KT M03/M04 A3035 RMK A01 T10331040  RH  095%=      5-min Rain = 0
KCO2 141111Z 05004KT M03/M04 A3035 RMK A01 T10331039  RH  095%=      5-min Rain = 0
KCO2 141112Z 05003KT M03/M04 A3035 RMK A01 T10321039  RH  095%=      5-min Rain = 0
KCO2 141113Z 05003KT M03/M04 A3035 RMK A01 T10321039  RH  095%=      5-min Rain = 0
KCO2 141114Z 06003KT M03/M04 A3035 RMK A01 T10311038  RH  095%=      5-min Rain = 0
KCO2 141115Z 06003KT M03/M04 A3035 RMK A01 T10321039  RH  095%=      5-min Rain = 0
KCO2 141116Z 06003KT M03/M04 A3035 RMK A01 T10311038  RH  095%=      5-min Rain = 0
KCO2 141117Z 06003KT M03/M04 A3035 RMK A01 T10311038  RH  095%=      5-min Rain = 0
KCO2 141118Z 06002KT M03/M04 A3035 RMK A01 T10311038  RH  095%=      5-min Rain = 0
KCO2 141119Z 06002KT M03/M04 A3035 RMK A01 T10311038  RH  095%=      5-min Rain = 0
KCO2 141120Z 06002KT M03/M04 A3035 RMK A01 T10311039  RH  095%=      5-min Rain = 0
KCO2 141121Z 07002KT M03/M04 A3035 RMK A01 T10311038  RH  095%=      5-min Rain = 0
KCO2 141122Z 06002KT M03/M04 A3035 RMK A01 T10311038  RH  095%=      5-min Rain = 0
KCO2 141123Z 06002KT M03/M04 A3035 RMK A01 T10311038  RH  095%=      5-min Rain = 0
KCO2 141124Z 06003KT M03/M04 A3035 RMK A01 T10311038  RH  095%=      5-min Rain = 0
KCO2 141125Z 06002KT M03/M04 A3035 RMK A01 T10301038  RH  095%=      5-min Rain = 0
KCO2 141126Z 07002KT M03/M04 A3036 RMK A01 T10301038  RH  095%=      5-min Rain = 0
KCO2 141127Z 07002KT M03/M04 A3036 RMK A01 T10301038  RH  095%=      5-min Rain = 0
KCO2 141128Z 07002KT M03/M04 A3036 RMK A01 T10301037  RH  095%=      5-min Rain = 0
KCO2 141129Z 07002KT M03/M04 A3036 RMK A01 T10301037  RH  095%=      5-min Rain = 0
KCO2 141130Z 05002KT M03/M04 A3036 RMK A01 T10301037  RH  095%=      5-min Rain = 0
KCO2 141131Z 05002KT M03/M04 A3036 RMK A01 T10301037  RH  095%=      5-min Rain = 0
KCO2 141132Z 05003KT M03/M04 A3035 RMK A01 T10301037  RH  095%=      5-min Rain = 0
KCO2 141133Z 06003KT M03/M04 A3036 RMK A01 T10301037  RH  095%=      5-min Rain = 0
KCO2 141134Z 05003KT M03/M04 A3036 RMK A01 T10291037  RH  095%=      5-min Rain = 0
KCO2 141135Z 05003KT M03/M04 A3036 RMK A01 T10291037  RH  095%=      5-min Rain = 0
KCO2 141136Z 05004KT M03/M04 A3036 RMK A01 T10291037  RH  095%=      5-min Rain = 0
KCO2 141137Z 05003KT M03/M04 A3036 RMK A01 T10291037  RH  095%=      5-min Rain = 0
KCO2 141138Z 05003KT M03/M04 A3036 RMK A01 T10291036  RH  095%=      5-min Rain = 0
KCO2 141139Z 06003KT M03/M04 A3036 RMK A01 T10281036  RH  095%=      5-min Rain = 0
KCO2 141140Z 06003KT M03/M04 A3036 RMK A01 T10281036  RH  095%=      5-min Rain = 0
KCO2 141141Z 05002KT M03/M04 A3036 RMK A01 T10281036  RH  094%=      5-min Rain = 0
KCO2 141142Z 06003KT M03/M04 A3036 RMK A01 T10281036  RH  094%=      5-min Rain = 0
KCO2 141143Z 05003KT M03/M04 A3036 RMK A01 T10281035  RH  094%=      5-min Rain = 0
KCO2 141144Z 04003KT M03/M04 A3036 RMK A01 T10281035  RH  094%=      5-min Rain = 0
KCO2 141145Z 05004KT M03/M04 A3036 RMK A01 T10281035  RH  094%=      5-min Rain = 0
KCO2 141146Z 05003KT M03/M04 A3036 RMK A01 T10271035  RH  094%=      5-min Rain = 0
KCO2 141147Z 05003KT M03/M04 A3036 RMK A01 T10281036  RH  094%=      5-min Rain = 0
KCO2 141148Z 05003KT M03/M04 A3036 RMK A01 T10271035  RH  094%=      5-min Rain = 0
KCO2 141149Z 05003KT M03/M04 A3036 RMK A01 T10271035  RH  094%=      5-min Rain = 0
KCO2 141150Z 05002KT M03/M04 A3036 RMK A01 T10271035  RH  094%=      5-min Rain = 0
KCO2 141151Z 05003KT M03/M04 A3036 RMK A01 T10271035  RH  094%=      5-min Rain = 0
KCO2 141152Z 05003KT M03/M04 A3036 RMK A01 T10271035  RH  094%=      5-min Rain = 0
KCO2 141153Z 05003KT M03/M04 A3036 RMK A01 T10271035  RH  094%=      5-min Rain = 0
KCO2 141154Z 05003KT M03/M04 A3036 RMK A01 T10271035  RH  094%=      5-min Rain = 0
KCO2 141155Z 05003KT M03/M04 A3036 RMK A01 T10271035  RH  094%=      5-min Rain = 0
KCO2 141156Z 06003KT M03/M04 A3036 RMK A01 T10271035  RH  094%=      5-min Rain = 0
KCO2 141157Z 06003KT M03/M04 A3036 RMK A01 T10261035  RH  094%=      5-min Rain = 0
KCO2 141158Z 06003KT M03/M04 A3036 RMK A01 T10261035  RH  094%=      5-min Rain = 0
KCO2 141159Z 06003KT M03/M04 A3036 RMK A01 T10261035  RH  094%=      5-min Rain = 0
KCO2 141200Z 06003KT M03/M04 A3036 RMK A01 T10271035  RH  094%=      5-min Rain = 0
KCO2 141201Z 06003KT M03/M04 A3036 RMK A01 T10261035  RH  094%=      5-min Rain = 0
KCO2 141202Z 05003KT M03/M04 A3036 RMK A01 T10261035  RH  094%=      5-min Rain = 0
KCO2 141203Z 05004KT M03/M04 A3036 RMK A01 T10261035  RH  094%=      5-min Rain = 0
KCO2 141204Z 05004KT M03/M04 A3036 RMK A01 T10261035  RH  094%=      5-min Rain = 0
KCO2 141205Z 05004KT M03/M04 A3036 RMK A01 T10261035  RH  094%=      5-min Rain = 0
KCO2 141206Z 06004KT M03/M04 A3036 RMK A01 T10261035  RH  094%=      5-min Rain = 0
KCO2 141207Z 05004KT M03/M04 A3036 RMK A01 T10261035  RH  094%=      5-min Rain = 0
KCO2 141208Z 05004KT M03/M04 A3036 RMK A01 T10261035  RH  094%=      5-min Rain = 0
KCO2 141209Z 05004KT M03/M04 A3036 RMK A01 T10261035  RH  094%=      5-min Rain = 0
KCO2 141210Z 05004KT M03/M04 A3036 RMK A01 T10261035  RH  094%=      5-min Rain = 0
KCO2 141211Z 05004KT M03/M04 A3036 RMK A01 T10261035  RH  094%=      5-min Rain = 0
KCO2 141212Z 05004KT M03/M04 A3036 RMK A01 T10261035  RH  094%=      5-min Rain = 0
KCO2 141213Z 05004KT M03/M04 A3036 RMK A01 T10261035  RH  094%=      5-min Rain = 0
KCO2 141214Z 05004KT M03/M03 A3037 RMK A01 T10261034  RH  094%=      5-min Rain = 0
KCO2 141215Z 05004KT M03/M04 A3037 RMK A01 T10261035  RH  094%=      5-min Rain = 0
KCO2 141216Z 05004KT M03/M04 A3036 RMK A01 T10261035  RH  094%=      5-min Rain = 0
KCO2 141217Z 05004KT M03/M04 A3036 RMK A01 T10261035  RH  094%=      5-min Rain = 0
KCO2 141218Z 05004KT M03/M04 A3036 RMK A01 T10261035  RH  094%=      5-min Rain = 0
KCO2 141219Z 06003KT M03/M03 A3036 RMK A01 T10261034  RH  094%=      5-min Rain = 0
KCO2 141220Z 06003KT M03/M03 A3036 RMK A01 T10261034  RH  094%=      5-min Rain = 0
KCO2 141221Z 06003KT M03/M03 A3036 RMK A01 T10251034  RH  094%=      5-min Rain = 0
KCO2 141222Z 07003KT M03/M03 A3036 RMK A01 T10261034  RH  094%=      5-min Rain = 0
KCO2 141223Z 07004KT M03/M03 A3036 RMK A01 T10261034  RH  094%=      5-min Rain = 0
KCO2 141224Z 07003KT M03/M03 A3036 RMK A01 T10251034  RH  094%=      5-min Rain = 0
KCO2 141225Z 07004KT M03/M03 A3036 RMK A01 T10261034  RH  094%=      5-min Rain = 0
KCO2 141226Z 07005KT M03/M03 A3036 RMK A01 T10261034  RH  094%=      5-min Rain = 0
KCO2 141227Z 07004KT M03/M03 A3036 RMK A01 T10251034  RH  094%=      5-min Rain = 0
KCO2 141228Z 07004KT M03/M03 A3036 RMK A01 T10251034  RH  094%=      5-min Rain = 0
KCO2 141229Z 07005KT M03/M03 A3036 RMK A01 T10261034  RH  094%=      5-min Rain = 0
KCO2 141230Z 07004KT M03/M03 A3036 RMK A01 T10261034  RH  094%=      5-min Rain = 0
KCO2 141231Z 07004KT M03/M04 A3037 RMK A01 T10261035  RH  094%=      5-min Rain = 0
KCO2 141232Z 07005KT M03/M04 A3037 RMK A01 T10261035  RH  094%=      5-min Rain = 0
KCO2 141233Z 06005KT M03/M04 A3036 RMK A01 T10261035  RH  094%=      5-min Rain = 0
KCO2 141234Z 06005KT M03/M04 A3037 RMK A01 T10261035  RH  093%=      5-min Rain = 0
KCO2 141235Z 06005KT M03/M04 A3037 RMK A01 T10261035  RH  093%=      5-min Rain = 0
KCO2 141236Z 06004KT M03/M04 A3037 RMK A01 T10251035  RH  093%=      5-min Rain = 0
KCO2 141237Z 06004KT M03/M03 A3037 RMK A01 T10251034  RH  093%=      5-min Rain = 0
KCO2 141238Z 06005KT M03/M03 A3037 RMK A01 T10251034  RH  093%=      5-min Rain = 0
KCO2 141239Z 06005KT M03/M03 A3037 RMK A01 T10251034  RH  093%=      5-min Rain = 0
KCO2 141240Z 06005KT M03/M04 A3037 RMK A01 T10251035  RH  093%=      5-min Rain = 0
KCO2 141241Z 07005KT M03/M04 A3037 RMK A01 T10251035  RH  093%=      5-min Rain = 0
KCO2 141242Z 06004KT M03/M04 A3037 RMK A01 T10251035  RH  093%=      5-min Rain = 0
KCO2 141243Z 06005KT M03/M04 A3037 RMK A01 T10251035  RH  093%=      5-min Rain = 0
KCO2 141244Z 06005KT M03/M04 A3037 RMK A01 T10261035  RH  093%=      5-min Rain = 0
KCO2 141245Z 06005KT M03/M04 A3037 RMK A01 T10261036  RH  093%=      5-min Rain = 0
KCO2 141246Z 07004KT M03/M04 A3037 RMK A01 T10261036  RH  093%=      5-min Rain = 0
KCO2 141247Z 07005KT M03/M04 A3037 RMK A01 T10261036  RH  093%=      5-min Rain = 0
KCO2 141248Z 07005KT M03/M04 A3037 RMK A01 T10261036  RH  093%=      5-min Rain = 0
KCO2 141249Z 07004KT M03/M04 A3037 RMK A01 T10261036  RH  093%=      5-min Rain = 0
KCO2 141250Z 07005KT M03/M04 A3037 RMK A01 T10261037  RH  093%=      5-min Rain = 0
KCO2 141251Z 07005KT M03/M04 A3037 RMK A01 T10261037  RH  093%=      5-min Rain = 0
KCO2 141252Z 07004KT M03/M04 A3037 RMK A01 T10261036  RH  093%=      5-min Rain = 0
KCO2 141253Z 07004KT M03/M04 A3037 RMK A01 T10261036  RH  093%=      5-min Rain = 0
KCO2 141254Z 06004KT M03/M04 A3037 RMK A01 T10261036  RH  093%=      5-min Rain = 0
KCO2 141255Z 07003KT M03/M04 A3037 RMK A01 T10261036  RH  093%=      5-min Rain = 0
KCO2 141256Z 06004KT M03/M04 A3037 RMK A01 T10261036  RH  093%=      5-min Rain = 0
KCO2 141257Z 07004KT M03/M04 A3037 RMK A01 T10261036  RH  093%=      5-min Rain = 0
KCO2 141258Z 06004KT M03/M04 A3037 RMK A01 T10261036  RH  093%=      5-min Rain = 0
KCO2 141259Z 06004KT M03/M04 A3037 RMK A01 T10261037  RH  093%=      5-min Rain = 0
KCO2 141300Z 06003KT M03/M04 A3037 RMK A01 T10261037  RH  092%=      5-min Rain = 0
KCO2 141301Z 06003KT M03/M04 A3037 RMK A01 T10271037  RH  093%=      5-min Rain = 0
KCO2 141302Z 06004KT M03/M04 A3037 RMK A01 T10261037  RH  093%=      5-min Rain = 0
KCO2 141303Z 05003KT M03/M04 A3037 RMK A01 T10271037  RH  093%=      5-min Rain = 0
KCO2 141304Z 06004KT M03/M04 A3037 RMK A01 T10271037  RH  093%=      5-min Rain = 0
KCO2 141305Z 06004KT M03/M04 A3037 RMK A01 T10271037  RH  093%=      5-min Rain = 0
KCO2 141306Z 06003KT M03/M04 A3037 RMK A01 T10261037  RH  093%=      5-min Rain = 0
KCO2 141307Z 06003KT M03/M04 A3037 RMK A01 T10261037  RH  093%=      5-min Rain = 0
KCO2 141308Z 06004KT M03/M04 A3037 RMK A01 T10261037  RH  093%=      5-min Rain = 0
KCO2 141309Z 07004KT M03/M04 A3037 RMK A01 T10271037  RH  092%=      5-min Rain = 0
KCO2 141310Z 06003KT M03/M04 A3037 RMK A01 T10261037  RH  093%=      5-min Rain = 0
KCO2 141311Z 06003KT M03/M04 A3037 RMK A01 T10261037  RH  093%=      5-min Rain = 0
KCO2 141312Z 06003KT M03/M04 A3037 RMK A01 T10261037  RH  093%=      5-min Rain = 0
KCO2 141313Z 05003KT M03/M04 A3037 RMK A01 T10261037  RH  093%=      5-min Rain = 0
KCO2 141314Z 05003KT M03/M04 A3037 RMK A01 T10261036  RH  093%=      5-min Rain = 0
KCO2 141315Z 05003KT M03/M04 A3037 RMK A01 T10261036  RH  093%=      5-min Rain = 0
KCO2 141316Z 06003KT M03/M04 A3037 RMK A01 T10261036  RH  093%=      5-min Rain = 0
KCO2 141317Z 06003KT M03/M04 A3037 RMK A01 T10261037  RH  093%=      5-min Rain = 0
KCO2 141318Z 06003KT M03/M04 A3037 RMK A01 T10261037  RH  093%=      5-min Rain = 0
KCO2 141319Z 06004KT M03/M04 A3037 RMK A01 T10261036  RH  093%=      5-min Rain = 0
KCO2 141320Z 06005KT M03/M04 A3037 RMK A01 T10261037  RH  093%=      5-min Rain = 0
KCO2 141321Z 07004KT M03/M04 A3037 RMK A01 T10261036  RH  092%=      5-min Rain = 0
KCO2 141322Z 06004KT M03/M04 A3037 RMK A01 T10261037  RH  092%=      5-min Rain = 0
KCO2 141323Z 06003KT M03/M04 A3037 RMK A01 T10261037  RH  092%=      5-min Rain = 0
KCO2 141324Z 06003KT M03/M04 A3037 RMK A01 T10261037  RH  092%=      5-min Rain = 0
KCO2 141325Z 06003KT M03/M04 A3037 RMK A01 T10261037  RH  092%=      5-min Rain = 0
KCO2 141326Z 07004KT M03/M04 A3038 RMK A01 T10251036  RH  092%=      5-min Rain = 0
KCO2 141327Z 06003KT M03/M04 A3038 RMK A01 T10261036  RH  092%=      5-min Rain = 0
KCO2 141328Z 07004KT M03/M04 A3038 RMK A01 T10261036  RH  092%=      5-min Rain = 0
KCO2 141329Z 07004KT M03/M04 A3038 RMK A01 T10261036  RH  092%=      5-min Rain = 0
KCO2 141330Z 07004KT M03/M04 A3038 RMK A01 T10261036  RH  092%=      5-min Rain = 0
KCO2 141331Z 07003KT M03/M04 A3038 RMK A01 T10261037  RH  092%=      5-min Rain = 0
KCO2 141332Z 07003KT M03/M04 A3038 RMK A01 T10251036  RH  092%=      5-min Rain = 0
KCO2 141333Z 07003KT M03/M04 A3038 RMK A01 T10251036  RH  092%=      5-min Rain = 0
KCO2 141334Z 06003KT M03/M04 A3038 RMK A01 T10251036  RH  092%=      5-min Rain = 0
KCO2 141335Z 06003KT M03/M04 A3038 RMK A01 T10251036  RH  092%=      5-min Rain = 0
KCO2 141336Z 05003KT M03/M04 A3038 RMK A01 T10251036  RH  092%=      5-min Rain = 0
KCO2 141337Z 05003KT M03/M04 A3038 RMK A01 T10251036  RH  092%=      5-min Rain = 0
KCO2 141338Z 06003KT M03/M04 A3038 RMK A01 T10251035  RH  092%=      5-min Rain = 0
KCO2 141339Z 05003KT M03/M04 A3038 RMK A01 T10251035  RH  093%=      5-min Rain = 0
KCO2 141340Z 06002KT M03/M04 A3038 RMK A01 T10251035  RH  093%=      5-min Rain = 0
KCO2 141341Z 05003KT M02/M03 A3038 RMK A01 T10241034  RH  093%=      5-min Rain = 0
KCO2 141342Z 06003KT M02/M03 A3038 RMK A01 T10241034  RH  093%=      5-min Rain = 0
KCO2 141343Z 06003KT M02/M03 A3038 RMK A01 T10241034  RH  093%=      5-min Rain = 0
KCO2 141344Z 05003KT M02/M03 A3038 RMK A01 T10241034  RH  093%=      5-min Rain = 0
KCO2 141345Z 06002KT M02/M03 A3038 RMK A01 T10241034  RH  093%=      5-min Rain = 0
KCO2 141346Z 06003KT M02/M03 A3038 RMK A01 T10241033  RH  093%=      5-min Rain = 0
KCO2 141347Z 06003KT M02/M03 A3038 RMK A01 T10231033  RH  093%=      5-min Rain = 0
KCO2 141348Z 06003KT M02/M03 A3038 RMK A01 T10231032  RH  093%=      5-min Rain = 0
KCO2 141349Z 07003KT M02/M03 A3038 RMK A01 T10231032  RH  093%=      5-min Rain = 0
KCO2 141350Z 06003KT M02/M03 A3038 RMK A01 T10231033  RH  093%=      5-min Rain = 0
KCO2 141351Z 06003KT M02/M03 A3038 RMK A01 T10231032  RH  093%=      5-min Rain = 0
KCO2 141352Z 06003KT M02/M03 A3038 RMK A01 T10221032  RH  093%=      5-min Rain = 0
KCO2 141353Z 06003KT M02/M03 A3038 RMK A01 T10221032  RH  093%=      5-min Rain = 0
KCO2 141354Z 07004KT M02/M03 A3038 RMK A01 T10221032  RH  093%=      5-min Rain = 0
KCO2 141355Z 07003KT M02/M03 A3038 RMK A01 T10221032  RH  093%=      5-min Rain = 0
KCO2 141356Z 07003KT M02/M03 A3038 RMK A01 T10211031  RH  093%=      5-min Rain = 0
KCO2 141357Z 07003KT M02/M03 A3038 RMK A01 T10221032  RH  093%=      5-min Rain = 0
KCO2 141358Z 06002KT M02/M03 A3038 RMK A01 T10211031  RH  093%=      5-min Rain = 0
KCO2 141359Z 06003KT M02/M03 A3038 RMK A01 T10211031  RH  093%=      5-min Rain = 0
KCO2 141400Z 06003KT M02/M03 A3038 RMK A01 T10211031  RH  093%=      5-min Rain = 0
KCO2 141401Z 07004KT M02/M03 A3038 RMK A01 T10211031  RH  093%=      5-min Rain = 0
KCO2 141402Z 07004KT M02/M03 A3038 RMK A01 T10211032  RH  093%=      5-min Rain = 0
KCO2 141403Z 07003KT M02/M03 A3038 RMK A01 T10211032  RH  093%=      5-min Rain = 0
KCO2 141404Z 08003KT M02/M03 A3038 RMK A01 T10211031  RH  093%=      5-min Rain = 0
KCO2 141405Z 08003KT M02/M03 A3038 RMK A01 T10201031  RH  093%=      5-min Rain = 0
KCO2 141406Z 08003KT M02/M03 A3038 RMK A01 T10201030  RH  093%=      5-min Rain = 0
KCO2 141407Z 08003KT M02/M03 A3038 RMK A01 T10201030  RH  093%=      5-min Rain = 0
KCO2 141408Z 09003KT M02/M03 A3038 RMK A01 T10201030  RH  093%=      5-min Rain = 0
KCO2 141409Z 08003KT M02/M03 A3038 RMK A01 T10201030  RH  093%=      5-min Rain = 0
KCO2 141410Z 09003KT M02/M03 A3038 RMK A01 T10191030  RH  093%=      5-min Rain = 0
KCO2 141411Z 09004KT M02/M03 A3038 RMK A01 T10191029  RH  093%=      5-min Rain = 0
KCO2 141412Z 10004KT M02/M03 A3038 RMK A01 T10181029  RH  093%=      5-min Rain = 0
KCO2 141413Z 09004KT M02/M03 A3038 RMK A01 T10181029  RH  093%=      5-min Rain = 0
KCO2 141414Z 10003KT M02/M03 A3038 RMK A01 T10181029  RH  092%=      5-min Rain = 0
KCO2 141415Z 09004KT M02/M03 A3038 RMK A01 T10181028  RH  092%=      5-min Rain = 0
KCO2 141416Z 10004KT M02/M03 A3038 RMK A01 T10171028  RH  092%=      5-min Rain = 0
KCO2 141417Z 09003KT M02/M03 A3038 RMK A01 T10171028  RH  092%=      5-min Rain = 0
KCO2 141418Z 08003KT M02/M03 A3038 RMK A01 T10171028  RH  092%=      5-min Rain = 0
KCO2 141419Z 08003KT M02/M03 A3038 RMK A01 T10171028  RH  092%=      5-min Rain = 0
KCO2 141420Z 09003KT M02/M03 A3038 RMK A01 T10171028  RH  092%=      5-min Rain = 0
KCO2 141421Z 09005KT M02/M03 A3038 RMK A01 T10171027  RH  092%=      5-min Rain = 0
KCO2 141422Z 08005KT M02/M03 A3038 RMK A01 T10161027  RH  092%=      5-min Rain = 0
KCO2 141423Z 08004KT M02/M03 A3038 RMK A01 T10161027  RH  092%=      5-min Rain = 0
KCO2 141424Z 09004KT M02/M03 A3038 RMK A01 T10161028  RH  092%=      5-min Rain = 0
KCO2 141425Z 10004KT M02/M03 A3038 RMK A01 T10171028  RH  092%=      5-min Rain = 0
KCO2 141426Z 09004KT M02/M03 A3038 RMK A01 T10161027  RH  092%=      5-min Rain = 0
KCO2 141427Z 10004KT M02/M03 A3038 RMK A01 T10161027  RH  092%=      5-min Rain = 0
KCO2 141428Z 10003KT M02/M03 A3038 RMK A01 T10161027  RH  092%=      5-min Rain = 0
KCO2 141429Z 11004KT M02/M03 A3038 RMK A01 T10151026  RH  092%=      5-min Rain = 0
KCO2 141430Z 10005KT M02/M03 A3038 RMK A01 T10151026  RH  092%=      5-min Rain = 0
KCO2 141431Z 10004KT M02/M03 A3038 RMK A01 T10151026  RH  092%=      5-min Rain = 0
KCO2 141432Z 09004KT M02/M03 A3039 RMK A01 T10161027  RH  092%=      5-min Rain = 0
KCO2 141433Z 09004KT M02/M03 A3039 RMK A01 T10151027  RH  092%=      5-min Rain = 0
KCO2 141434Z 10005KT M02/M03 A3039 RMK A01 T10151026  RH  092%=      5-min Rain = 0
KCO2 141435Z 09006KT M02/M03 A3039 RMK A01 T10151026  RH  092%=      5-min Rain = 0
KCO2 141436Z 09005KT M02/M03 A3039 RMK A01 T10151026  RH  092%=      5-min Rain = 0
KCO2 141437Z 09005KT M02/M03 A3039 RMK A01 T10151026  RH  092%=      5-min Rain = 0
KCO2 141438Z 10004KT M02/M03 A3039 RMK A01 T10151026  RH  092%=      5-min Rain = 0
KCO2 141439Z 09005KT M02/M03 A3039 RMK A01 T10151026  RH  092%=      5-min Rain = 0
KCO2 141440Z 09005KT M01/M03 A3039 RMK A01 T10141026  RH  092%=      5-min Rain = 0
KCO2 141441Z 08004KT M02/M03 A3039 RMK A01 T10151026  RH  092%=      5-min Rain = 0
KCO2 141442Z 09005KT M01/M03 A3039 RMK A01 T10141026  RH  092%=      5-min Rain = 0
KCO2 141443Z 09004KT M02/M03 A3039 RMK A01 T10151026  RH  092%=      5-min Rain = 0
KCO2 141444Z 09005KT M01/M03 A3039 RMK A01 T10141025  RH  092%=      5-min Rain = 0
KCO2 141445Z 11004KT M01/M03 A3039 RMK A01 T10141025  RH  092%=      5-min Rain = 0
KCO2 141446Z 10005KT M01/M03 A3039 RMK A01 T10141025  RH  092%=      5-min Rain = 0
KCO2 141447Z 09005KT M01/M02 A3038 RMK A01 T10131024  RH  092%=      5-min Rain = 0
KCO2 141448Z 11006KT M01/M02 A3038 RMK A01 T10131024  RH  092%=      5-min Rain = 0
KCO2 141449Z 10005KT M01/M02 A3038 RMK A01 T10131024  RH  092%=      5-min Rain = 0
KCO2 141450Z 09004KT M01/M02 A3038 RMK A01 T10131024  RH  092%=      5-min Rain = 0
KCO2 141451Z 12005KT M01/M02 A3038 RMK A01 T10131024  RH  092%=      5-min Rain = 0
KCO2 141452Z 11005KT M01/M02 A3038 RMK A01 T10121023  RH  093%=      5-min Rain = 0
KCO2 141453Z 12005KT M01/M02 A3039 RMK A01 T10121023  RH  093%=      5-min Rain = 0
KCO2 141454Z 11005KT M01/M02 A3039 RMK A01 T10121023  RH  093%=      5-min Rain = 0
KCO2 141455Z 12006KT M01/M02 A3039 RMK A01 T10131023  RH  092%=      5-min Rain = 0
KCO2 141456Z 12006KT M01/M02 A3039 RMK A01 T10131023  RH  093%=      5-min Rain = 0
KCO2 141457Z 12005KT M01/M02 A3039 RMK A01 T10131023  RH  093%=      5-min Rain = 0
KCO2 141458Z 13005KT M01/M02 A3039 RMK A01 T10131023  RH  093%=      5-min Rain = 0
KCO2 141459Z 13005KT M01/M02 A3039 RMK A01 T10121023  RH  093%=      5-min Rain = 0
KCO2 141500Z 13007KT M01/M02 A3039 RMK A01 T10121022  RH  093%=      5-min Rain = 0
KCO2 141501Z 12006KT M01/M02 A3039 RMK A01 T10121022  RH  093%=      5-min Rain = 0
KCO2 141502Z 12006KT M01/M02 A3039 RMK A01 T10121022  RH  093%=      5-min Rain = 0
KCO2 141503Z 13006KT M01/M02 A3039 RMK A01 T10121022  RH  093%=      5-min Rain = 0
KCO2 141504Z 13005KT M01/M02 A3039 RMK A01 T10111021  RH  093%=      5-min Rain = 0
KCO2 141505Z 14008KT M01/M02 A3039 RMK A01 T10111020  RH  093%=      5-min Rain = 0
KCO2 141506Z 13007KT M01/M02 A3039 RMK A01 T10101020  RH  093%=      5-min Rain = 0
KCO2 141507Z 14007KT M01/M02 A3039 RMK A01 T10111021  RH  093%=      5-min Rain = 0
KCO2 141508Z 13007KT M01/M02 A3039 RMK A01 T10111021  RH  093%=      5-min Rain = 0
KCO2 141509Z 13005KT M01/M02 A3039 RMK A01 T10111021  RH  093%=      5-min Rain = 0
KCO2 141510Z 14006KT M01/M02 A3039 RMK A01 T10111020  RH  093%=      5-min Rain = 0
KCO2 141511Z 13006KT M01/M02 A3039 RMK A01 T10101019  RH  093%=      5-min Rain = 0
KCO2 141512Z 12006KT M01/M02 A3039 RMK A01 T10091019  RH  093%=      5-min Rain = 0
KCO2 141513Z 13004KT M01/M02 A3039 RMK A01 T10101019  RH  093%=      5-min Rain = 0
KCO2 141514Z 13005KT M01/M02 A3039 RMK A01 T10091018  RH  093%=      5-min Rain = 0
KCO2 141515Z 14008KT M01/M02 A3039 RMK A01 T10091018  RH  093%=      5-min Rain = 0
KCO2 141516Z 14007KT M01/M02 A3039 RMK A01 T10091018  RH  093%=      5-min Rain = 0
KCO2 141517Z 13005KT M01/M02 A3039 RMK A01 T10091019  RH  093%=      5-min Rain = 0
KCO2 141518Z 15005KT M01/M02 A3039 RMK A01 T10091019  RH  093%=      5-min Rain = 0
KCO2 141519Z 14006KT M01/M02 A3039 RMK A01 T10081017  RH  094%=      5-min Rain = 0
KCO2 141520Z 12006KT M01/M02 A3039 RMK A01 T10071017  RH  094%=      5-min Rain = 0
KCO2 141521Z 13006KT M01/M02 A3039 RMK A01 T10071017  RH  093%=      5-min Rain = 0
KCO2 141522Z 14005KT M01/M02 A3039 RMK A01 T10071016  RH  093%=      5-min Rain = 0
KCO2 141523Z 14004KT M01/M02 A3039 RMK A01 T10061015  RH  094%=      5-min Rain = 0
KCO2 141524Z 14005KT M01/M01 A3039 RMK A01 T10051014  RH  094%=      5-min Rain = 0
KCO2 141525Z 15006KT M01/M01 A3039 RMK A01 T10051014  RH  094%=      5-min Rain = 0
KCO2 141526Z 15006KT M01/M01 A3039 RMK A01 T10051014  RH  093%=      5-min Rain = 0
KCO2 141527Z 15006KT M01/M02 A3039 RMK A01 T10051015  RH  093%=      5-min Rain = 0
KCO2 141528Z 15008KT M01/M02 A3039 RMK A01 T10061016  RH  093%=      5-min Rain = 0
KCO2 141529Z 14009KT M01/M02 A3039 RMK A01 T10061016  RH  092%=      5-min Rain = 0
KCO2 141530Z 14010KT M01/M02 A3039 RMK A01 T10061018  RH  092%=      5-min Rain = 0
KCO2 141531Z 13009KT M01/M02 A3039 RMK A01 T10061017  RH  092%=      5-min Rain = 0
KCO2 141532Z 14006KT M01/M02 A3039 RMK A01 T10051016  RH  092%=      5-min Rain = 0
KCO2 141533Z 14007KT M01/M02 A3039 RMK A01 T10051016  RH  092%=      5-min Rain = 0
KCO2 141534Z 15008KT M00/M02 A3039 RMK A01 T10041015  RH  092%=      5-min Rain = 0
KCO2 141535Z 14007KT M00/M02 A3039 RMK A01 T10041015  RH  092%=      5-min Rain = 0
KCO2 141536Z 14007KT M00/M02 A3039 RMK A01 T10031015  RH  092%=      5-min Rain = 0
KCO2 141537Z 13006KT M00/M02 A3039 RMK A01 T10031016  RH  091%=      5-min Rain = 0
KCO2 141538Z 13007KT M00/M02 A3039 RMK A01 T10041016  RH  091%=      5-min Rain = 0
KCO2 141539Z 13008KT M00/M02 A3039 RMK A01 T10041016  RH  091%=      5-min Rain = 0
KCO2 141540Z 14009KT M00/M02 A3039 RMK A01 T10041017  RH  091%=      5-min Rain = 0
KCO2 141541Z 14008KT M00/M02 A3039 RMK A01 T10041017  RH  091%=      5-min Rain = 0
KCO2 141542Z 15008KT M00/M02 A3039 RMK A01 T10041017  RH  091%=      5-min Rain = 0
KCO2 141543Z 14007KT M00/M02 A3039 RMK A01 T10041017  RH  091%=      5-min Rain = 0
KCO2 141544Z 14006KT M00/M02 A3039 RMK A01 T10031017  RH  091%=      5-min Rain = 0
KCO2 141545Z 13006KT M00/M02 A3039 RMK A01 T10031016  RH  091%=      5-min Rain = 0
KCO2 141546Z 12006KT M00/M02 A3039 RMK A01 T10021015  RH  091%=      5-min Rain = 0
KCO2 141547Z 12008KT M00/M02 A3039 RMK A01 T10011015  RH  090%=      5-min Rain = 0
KCO2 141548Z 13008KT M00/M02 A3039 RMK A01 T10021017  RH  090%=      5-min Rain = 0
KCO2 141549Z 14008KT M00/M02 A3039 RMK A01 T10021017  RH  090%=      5-min Rain = 0
KCO2 141550Z 14008KT M00/M02 A3039 RMK A01 T10031018  RH  089%=      5-min Rain = 0
KCO2 141551Z 13009KT M00/M02 A3039 RMK A01 T10021018  RH  089%=      5-min Rain = 0
KCO2 141552Z 14008KT M00/M02 A3039 RMK A01 T10021018  RH  089%=      5-min Rain = 0
KCO2 141553Z 12008KT M00/M02 A3039 RMK A01 T10021018  RH  089%=      5-min Rain = 0
KCO2 141554Z 12006KT M00/M02 A3039 RMK A01 T10011017  RH  089%=      5-min Rain = 0
KCO2 141555Z 13006KT M00/M02 A3039 RMK A01 T10011017  RH  089%=      5-min Rain = 0
KCO2 141556Z 14009KT 00/02 A3039 RMK A01 T00-00-17  RH  089%=      5-min Rain = 0
KCO2 141557Z 13008KT 00/02 A3039 RMK A01 T00-00-18  RH  088%=      5-min Rain = 0
KCO2 141558Z 14006KT 00/02 A3039 RMK A01 T00-00-18  RH  088%=      5-min Rain = 0
KCO2 141559Z 13007KT 00/02 A3039 RMK A01 T00000-17  RH  088%=      5-min Rain = 0
KCO2 141600Z 14007KT 00/02 A3039 RMK A01 T00000-18  RH  087%=      5-min Rain = 0
KCO2 141601Z 14007KT 00/02 A3039 RMK A01 T00000-18  RH  087%=      5-min Rain = 0
KCO2 141602Z 14009KT 00/M02 A3039 RMK A01 T00011017  RH  088%=      5-min Rain = 0
KCO2 141603Z 14007KT 00/M02 A3039 RMK A01 T00011017  RH  088%=      5-min Rain = 0
KCO2 141604Z 15008KT 00/M02 A3039 RMK A01 T00011018  RH  087%=      5-min Rain = 0
KCO2 141605Z 16008KT 00/02 A3039 RMK A01 T00000-18  RH  087%=      5-min Rain = 0
KCO2 141606Z 16007KT 00/02 A3039 RMK A01 T00000-18  RH  088%=      5-min Rain = 0
KCO2 141607Z 15006KT 00/02 A3039 RMK A01 T00000-18  RH  087%=      5-min Rain = 0
KCO2 141608Z 15006KT 00/02 A3039 RMK A01 T00000-18  RH  088%=      5-min Rain = 0
KCO2 141609Z 14006KT 00/M02 A3039 RMK A01 T00011017  RH  088%=      5-min Rain = 0
KCO2 141610Z 14007KT 00/M01 A3039 RMK A01 T00031014  RH  088%=      5-min Rain = 0
KCO2 141611Z 16006KT 00/M01 A3039 RMK A01 T00041014  RH  088%=      5-min Rain = 0
KCO2 141612Z 16006KT 00/M02 A3039 RMK A01 T00041015  RH  088%=      5-min Rain = 0
KCO2 141613Z 16005KT 00/M02 A3039 RMK A01 T00041015  RH  087%=      5-min Rain = 0
KCO2 141614Z 15005KT 00/M02 A3039 RMK A01 T00041015  RH  087%=      5-min Rain = 0
KCO2 141615Z 15007KT 00/M01 A3039 RMK A01 T00041013  RH  088%=      5-min Rain = 0
KCO2 141616Z 13008KT 01/M01 A3039 RMK A01 T00051014  RH  087%=      5-min Rain = 0
KCO2 141617Z 14007KT 01/M02 A3039 RMK A01 T00051016  RH  086%=      5-min Rain = 0
KCO2 141618Z 14006KT 00/M02 A3039 RMK A01 T00041017  RH  086%=      5-min Rain = 0
KCO2 141619Z 16006KT 00/M02 A3039 RMK A01 T00041017  RH  086%=      5-min Rain = 0
KCO2 141620Z 16006KT 01/M02 A3039 RMK A01 T00051016  RH  086%=      5-min Rain = 0
KCO2 141621Z 17007KT 01/M02 A3039 RMK A01 T00051017  RH  085%=      5-min Rain = 0
KCO2 141622Z 16008KT 01/M02 A3039 RMK A01 T00051016  RH  085%=      5-min Rain = 0
KCO2 141623Z 15009KT 01/M02 A3039 RMK A01 T00051018  RH  085%=      5-min Rain = 0
KCO2 141624Z 14007KT 01/M02 A3039 RMK A01 T00051019  RH  084%=      5-min Rain = 0
KCO2 141625Z 14007KT 01/M02 A3039 RMK A01 T00051019  RH  084%=      5-min Rain = 0
KCO2 141626Z 14008KT 01/M02 A3039 RMK A01 T00051018  RH  084%=      5-min Rain = 0
KCO2 141627Z 14007KT 01/M02 A3039 RMK A01 T00051018  RH  084%=      5-min Rain = 0
KCO2 141628Z 15007KT 01/M02 A3039 RMK A01 T00061018  RH  084%=      5-min Rain = 0
KCO2 141629Z 16008KT 01/M02 A3039 RMK A01 T00061017  RH  084%=      5-min Rain = 0
KCO2 141630Z 16009KT 01/M02 A3039 RMK A01 T00061018  RH  084%=      5-min Rain = 0
KCO2 141631Z 15008KT 01/M02 A3039 RMK A01 T00061018  RH  084%=      5-min Rain = 0
KCO2 141632Z 15007KT 01/M02 A3039 RMK A01 T00061019  RH  084%=      5-min Rain = 0
KCO2 141633Z 16006KT 01/M02 A3039 RMK A01 T00061017  RH  085%=      5-min Rain = 0
KCO2 141634Z 17007KT 01/M01 A3039 RMK A01 T00081014  RH  085%=      5-min Rain = 0
KCO2 141635Z 17007KT 01/M02 A3039 RMK A01 T00091016  RH  084%=      5-min Rain = 0
KCO2 141636Z 16007KT 01/M02 A3039 RMK A01 T00081017  RH  084%=      5-min Rain = 0
KCO2 141637Z 14007KT 01/M02 A3039 RMK A01 T00081017  RH  083%=      5-min Rain = 0
KCO2 141638Z 15006KT 01/M02 A3039 RMK A01 T00081017  RH  083%=      5-min Rain = 0
KCO2 141639Z 14009KT 01/M02 A3039 RMK A01 T00091015  RH  084%=      5-min Rain = 0
KCO2 141640Z 14008KT 01/M01 A3039 RMK A01 T00101014  RH  084%=      5-min Rain = 0
KCO2 141641Z 15006KT 01/M02 A3039 RMK A01 T00111016  RH  082%=      5-min Rain = 0
KCO2 141642Z 16008KT 01/M02 A3039 RMK A01 T00101019  RH  081%=      5-min Rain = 0
KCO2 141643Z 14008KT 01/M02 A3039 RMK A01 T00101017  RH  082%=      5-min Rain = 0
KCO2 141644Z 14008KT 01/M02 A3039 RMK A01 T00101017  RH  082%=      5-min Rain = 0
KCO2 141645Z 16008KT 01/M02 A3039 RMK A01 T00121015  RH  083%=      5-min Rain = 0
KCO2 141646Z 14007KT 01/M02 A3039 RMK A01 T00121017  RH  081%=      5-min Rain = 0
KCO2 141647Z 14007KT 01/M02 A3039 RMK A01 T00121017  RH  081%=      5-min Rain = 0
KCO2 141648Z 15009KT 01/M02 A3039 RMK A01 T00121016  RH  082%=      5-min Rain = 0
KCO2 141649Z 15008KT 01/M01 A3039 RMK A01 T00141014  RH  081%=      5-min Rain = 0
KCO2 141650Z 14008KT 02/M01 A3038 RMK A01 T00151014  RH  081%=      5-min Rain = 0
KCO2 141651Z 15010KT 02/M01 A3038 RMK A01 T00171013  RH  080%=      5-min Rain = 0
KCO2 141652Z 15009KT 02/M01 A3038 RMK A01 T00171014  RH  080%=      5-min Rain = 0
KCO2 141653Z 15008KT 02/M02 A3038 RMK A01 T00171016  RH  079%=      5-min Rain = 0
KCO2 141654Z 16009KT 02/M02 A3038 RMK A01 T00161016  RH  079%=      5-min Rain = 0
KCO2 141655Z 16008KT 02/M02 A3038 RMK A01 T00161016  RH  079%=      5-min Rain = 0
KCO2 141656Z 16006KT 02/M02 A3038 RMK A01 T00161016  RH  079%=      5-min Rain = 0
KCO2 141657Z 15008KT 02/M02 A3038 RMK A01 T00171016  RH  079%=      5-min Rain = 0
KCO2 141658Z 13008KT 02/M01 A3038 RMK A01 T00191013  RH  080%=      5-min Rain = 0
KCO2 141659Z 14009KT 02/M01 A3038 RMK A01 T00221011  RH  079%=      5-min Rain = 0
KCO2 141700Z 13008KT 02/M02 A3038 RMK A01 T00191017  RH  077%=      5-min Rain = 0
KCO2 141701Z 14005KT 02/M02 A3038 RMK A01 T00171018  RH  078%=      5-min Rain = 0
KCO2 141702Z 13006KT 02/M02 A3038 RMK A01 T00181015  RH  079%=      5-min Rain = 0
KCO2 141703Z 15009KT 02/M01 A3038 RMK A01 T00211011  RH  080%=      5-min Rain = 0
KCO2 141704Z 15010KT 02/M01 A3038 RMK A01 T00231013  RH  077%=      5-min Rain = 0
KCO2 141705Z 15008KT 02/M02 A3038 RMK A01 T00231016  RH  075%=      5-min Rain = 0
KCO2 141706Z 13010KT 02/M02 A3038 RMK A01 T00221017  RH  075%=      5-min Rain = 0
KCO2 141707Z 14008KT 02/M02 A3038 RMK A01 T00211017  RH  076%=      5-min Rain = 0
KCO2 141708Z 13009KT 02/M02 A3038 RMK A01 T00211015  RH  077%=      5-min Rain = 0
KCO2 141709Z 13006KT 02/M02 A3038 RMK A01 T00211016  RH  077%=      5-min Rain = 0
KCO2 141710Z 13008KT 02/M01 A3038 RMK A01 T00221012  RH  078%=      5-min Rain = 0
KCO2 141711Z 15007KT 02/M01 A3038 RMK A01 T00241013  RH  077%=      5-min Rain = 0
KCO2 141712Z 13009KT 03/M01 A3038 RMK A01 T00261011  RH  076%=      5-min Rain = 0
KCO2 141713Z 14008KT 03/M01 A3038 RMK A01 T00271013  RH  075%=      5-min Rain = 0
KCO2 141714Z 15007KT 03/M01 A3037 RMK A01 T00281012  RH  075%=      5-min Rain = 0
KCO2 141715Z 13006KT 03/M01 A3037 RMK A01 T00291012  RH  074%=      5-min Rain = 0
KCO2 141716Z 12007KT 03/M01 A3037 RMK A01 T00291013  RH  074%=      5-min Rain = 0
KCO2 141717Z 13007KT 03/M01 A3037 RMK A01 T00281012  RH  075%=      5-min Rain = 0
KCO2 141718Z 15005KT 03/M01 A3037 RMK A01 T00281013  RH  074%=      5-min Rain = 0
KCO2 141719Z 16010KT 03/M01 A3037 RMK A01 T00291010  RH  075%=      5-min Rain = 0
KCO2 141720Z 16009KT 03/M01 A3037 RMK A01 T00311012  RH  073%=      5-min Rain = 0
KCO2 141721Z 14008KT 03/M01 A3037 RMK A01 T00311014  RH  072%=      5-min Rain = 0
KCO2 141722Z 12007KT 03/M01 A3037 RMK A01 T00301014  RH  073%=      5-min Rain = 0
KCO2 141723Z 12007KT 03/M01 A3037 RMK A01 T00301013  RH  073%=      5-min Rain = 0
KCO2 141724Z 17005KT 03/M01 A3037 RMK A01 T00301013  RH  073%=      5-min Rain = 0
KCO2 141725Z 17005KT 03/M01 A3037 RMK A01 T00291014  RH  074%=      5-min Rain = 0
KCO2 141726Z 15005KT 03/M01 A3037 RMK A01 T00321009  RH  075%=      5-min Rain = 0
KCO2 141727Z 13005KT 04/M01 A3037 RMK A01 T00361008  RH  073%=      5-min Rain = 0
KCO2 141728Z 16007KT 04/M01 A3037 RMK A01 T00371009  RH  072%=      5-min Rain = 0
KCO2 141729Z 16010KT 04/M01 A3037 RMK A01 T00401009  RH  071%=      5-min Rain = 0
KCO2 141730Z 17008KT 04/M01 A3037 RMK A01 T00381013  RH  069%=      5-min Rain = 0
KCO2 141731Z 17010KT 04/M01 A3036 RMK A01 T00391012  RH  070%=      5-min Rain = 0
KCO2 141732Z 16010KT 04/M01 A3036 RMK A01 T00411012  RH  069%=      5-min Rain = 0
KCO2 141733Z 16009KT 04/M01 A3036 RMK A01 T00401014  RH  068%=      5-min Rain = 0
KCO2 141734Z 16009KT 04/M01 A3036 RMK A01 T00391014  RH  069%=      5-min Rain = 0
KCO2 141735Z 17009KT 04/M01 A3036 RMK A01 T00391014  RH  069%=      5-min Rain = 0
KCO2 141736Z 17009KT 04/M01 A3036 RMK A01 T00371014  RH  069%=      5-min Rain = 0
KCO2 141737Z 18010KT 04/M01 A3036 RMK A01 T00391011  RH  070%=      5-min Rain = 0
KCO2 141738Z 16008KT 04/M01 A3036 RMK A01 T00411012  RH  069%=      5-min Rain = 0
KCO2 141739Z 13008KT 04/M01 A3036 RMK A01 T00421011  RH  068%=      5-min Rain = 0
KCO2 141740Z 12005KT 04/M02 A3036 RMK A01 T00371017  RH  068%=      5-min Rain = 0
KCO2 141741Z 12006KT 03/M02 A3036 RMK A01 T00341016  RH  070%=      5-min Rain = 0
KCO2 141742Z 14006KT 03/M01 A3036 RMK A01 T00341013  RH  071%=      5-min Rain = 0
KCO2 141743Z 15007KT 04/M01 A3036 RMK A01 T00361011  RH  071%=      5-min Rain = 0
KCO2 141744Z 14010KT 04/M01 A3036 RMK A01 T00401009  RH  070%=      5-min Rain = 0
KCO2 141745Z 15009KT 04/M01 A3036 RMK A01 T00431010  RH  069%=      5-min Rain = 0
KCO2 141746Z 13008KT 05/M01 A3036 RMK A01 T00451010  RH  067%=      5-min Rain = 0
KCO2 141747Z 15009KT 05/M01 A3036 RMK A01 T00451011  RH  067%=      5-min Rain = 0
KCO2 141748Z 15008KT 05/M01 A3036 RMK A01 T00451013  RH  066%=      5-min Rain = 0
KCO2 141749Z 16008KT 04/M01 A3036 RMK A01 T00441013  RH  067%=      5-min Rain = 0
KCO2 141750Z 16007KT 04/M01 A3036 RMK A01 T00431012  RH  068%=      5-min Rain = 0
KCO2 141751Z 17006KT 04/M01 A3036 RMK A01 T00421011  RH  068%=      5-min Rain = 0
KCO2 141752Z 16008KT 04/M01 A3036 RMK A01 T00431011  RH  068%=      5-min Rain = 0
KCO2 141753Z 14009KT 05/M01 A3036 RMK A01 T00451009  RH  068%=      5-min Rain = 0
KCO2 141754Z 15009KT 05/M01 A3036 RMK A01 T00471010  RH  066%=      5-min Rain = 0
KCO2 141755Z 15008KT 05/M01 A3035 RMK A01 T00461012  RH  066%=      5-min Rain = 0
KCO2 141756Z 16007KT 05/M01 A3036 RMK A01 T00461011  RH  066%=      5-min Rain = 0
KCO2 141757Z 15004KT 04/M01 A3035 RMK A01 T00441013  RH  066%=      5-min Rain = 0
KCO2 141758Z 17006KT 04/M01 A3035 RMK A01 T00421013  RH  067%=      5-min Rain = 0
KCO2 141759Z 15009KT 04/M01 A3035 RMK A01 T00431012  RH  068%=      5-min Rain = 0
KCO2 141800Z 13010KT 05/M01 A3035 RMK A01 T00471008  RH  068%=      5-min Rain = 0
KCO2 141801Z 12009KT 05/M01 A3035 RMK A01 T00501009  RH  065%=      5-min Rain = 0
KCO2 141802Z 13009KT 05/M01 A3035 RMK A01 T00491010  RH  065%=      5-min Rain = 0
KCO2 141803Z 12005KT 05/M01 A3035 RMK A01 T00491010  RH  066%=      5-min Rain = 0
KCO2 141804Z 13008KT 05/M01 A3035 RMK A01 T00491010  RH  066%=      5-min Rain = 0
KCO2 141805Z 12007KT 05/M01 A3035 RMK A01 T00491010  RH  066%=      5-min Rain = 0
KCO2 141806Z 13004KT 05/M01 A3035 RMK A01 T00511008  RH  066%=      5-min Rain = 0
KCO2 141807Z 16006KT 05/M01 A3035 RMK A01 T00521008  RH  065%=      5-min Rain = 0
KCO2 141808Z 14007KT 05/M01 A3035 RMK A01 T00531009  RH  064%=      5-min Rain = 0
KCO2 141809Z 18007KT 06/M01 A3035 RMK A01 T00551008  RH  064%=      5-min Rain = 0
KCO2 141810Z 18006KT 06/M01 A3035 RMK A01 T00551010  RH  063%=      5-min Rain = 0
KCO2 141811Z 16007KT 06/M01 A3034 RMK A01 T00561009  RH  063%=      5-min Rain = 0
KCO2 141812Z 16007KT 06/M01 A3034 RMK A01 T00581007  RH  063%=      5-min Rain = 0
KCO2 141813Z 15010KT 06/M01 A3034 RMK A01 T00591009  RH  062%=      5-min Rain = 0
KCO2 141814Z 14009KT 06/M01 A3034 RMK A01 T00601010  RH  061%=      5-min Rain = 0
KCO2 141815Z 14006KT 06/M01 A3034 RMK A01 T00591012  RH  060%=      5-min Rain = 0
KCO2 141816Z 18005KT 06/M01 A3034 RMK A01 T00571012  RH  061%=      5-min Rain = 0
KCO2 141817Z 15005G10KT 06/M01 A3034 RMK A01 T00561012  RH  061%=      5-min Rain = 0
KCO2 141818Z 13009KT 06/M01 A3034 RMK A01 T00571010  RH  062%=      5-min Rain = 0
KCO2 141819Z 15007KT 06/M01 A3034 RMK A01 T00601010  RH  061%=      5-min Rain = 0
KCO2 141820Z 15006KT 06/M01 A3034 RMK A01 T00581011  RH  061%=      5-min Rain = 0
KCO2 141821Z 17006KT 06/M01 A3034 RMK A01 T00601008  RH  061%=      5-min Rain = 0
KCO2 141822Z 13004KT 06/M01 A3034 RMK A01 T00601011  RH  060%=      5-min Rain = 0
KCO2 141823Z 14006KT 06/M01 A3034 RMK A01 T00611011  RH  060%=      5-min Rain = 0
KCO2 141824Z 14007KT 06/M01 A3034 RMK A01 T00611013  RH  059%=      5-min Rain = 0
KCO2 141825Z 13008KT 06/M01 A3033 RMK A01 T00601012  RH  060%=      5-min Rain = 0
KCO2 141826Z 14008KT 06/M01 A3033 RMK A01 T00631011  RH  059%=      5-min Rain = 0
KCO2 141827Z 12007KT 06/M01 A3033 RMK A01 T00631012  RH  059%=      5-min Rain = 0
KCO2 141828Z 13007KT 06/M01 A3033 RMK A01 T00641010  RH  059%=      5-min Rain = 0
KCO2 141829Z 14007KT 07/M01 A3033 RMK A01 T00651011  RH  058%=      5-min Rain = 0
KCO2 141830Z 16008KT 06/M01 A3033 RMK A01 T00641010  RH  059%=      5-min Rain = 0
KCO2 141831Z 17008KT 07/M01 A3033 RMK A01 T00661011  RH  058%=      5-min Rain = 0
KCO2 141832Z 18009KT 07/M01 A3033 RMK A01 T00661012  RH  058%=      5-min Rain = 0
KCO2 141833Z 18009KT 07/M01 A3033 RMK A01 T00661012  RH  058%=      5-min Rain = 0
KCO2 141834Z 19007KT 07/M01 A3033 RMK A01 T00661013  RH  057%=      5-min Rain = 0
KCO2 141835Z 17006KT 07/M01 A3033 RMK A01 T00661011  RH  058%=      5-min Rain = 0
KCO2 141836Z 17008KT 07/M01 A3033 RMK A01 T00701008  RH  057%=      5-min Rain = 0
KCO2 141837Z 16008KT 07/M01 A3033 RMK A01 T00731008  RH  056%=      5-min Rain = 0
KCO2 141838Z 16007KT 08/M01 A3033 RMK A01 T00751010  RH  055%=      5-min Rain = 0
KCO2 141839Z 16008KT 08/M01 A3033 RMK A01 T00751011  RH  054%=      5-min Rain = 0
KCO2 141840Z 16009KT 07/M01 A3033 RMK A01 T00741012  RH  054%=      5-min Rain = 0
KCO2 141841Z 16006KT 07/M01 A3033 RMK A01 T00721012  RH  055%=      5-min Rain = 0
KCO2 141842Z 14006KT 07/M01 A3033 RMK A01 T00731010  RH  056%=      5-min Rain = 0
KCO2 141843Z 18008KT 07/M01 A3033 RMK A01 T00741010  RH  055%=      5-min Rain = 0
KCO2 141844Z 17007KT 07/M01 A3033 RMK A01 T00731011  RH  055%=      5-min Rain = 0
KCO2 141845Z 19010KT 07/M01 A3033 RMK A01 T00721010  RH  056%=      5-min Rain = 0
KCO2 141846Z 17008KT 07/M01 A3033 RMK A01 T00721010  RH  056%=      5-min Rain = 0
KCO2 141847Z 16007KT 07/M01 A3033 RMK A01 T00711012  RH  056%=      5-min Rain = 0
KCO2 141848Z 17005KT 07/M01 A3032 RMK A01 T00691012  RH  056%=      5-min Rain = 0
KCO2 141849Z 19009KT 07/M01 A3032 RMK A01 T00691011  RH  057%=      5-min Rain = 0
KCO2 141850Z 16008KT 07/M01 A3032 RMK A01 T00711010  RH  056%=      5-min Rain = 0
KCO2 141851Z 15006KT 07/M01 A3032 RMK A01 T00711010  RH  056%=      5-min Rain = 0
KCO2 141852Z 15005KT 07/M01 A3032 RMK A01 T00721009  RH  057%=      5-min Rain = 0
KCO2 141853Z 18007KT 07/M01 A3032 RMK A01 T00741008  RH  056%=      5-min Rain = 0
KCO2 141854Z 17006KT 07/M01 A3032 RMK A01 T00741009  RH  056%=      5-min Rain = 0
KCO2 141855Z 18006KT 07/M01 A3032 RMK A01 T00741010  RH  055%=      5-min Rain = 0
KCO2 141856Z 16004KT 07/M01 A3032 RMK A01 T00721011  RH  056%=      5-min Rain = 0
KCO2 141857Z 15006KT 07/M01 A3032 RMK A01 T00721008  RH  057%=      5-min Rain = 0
KCO2 141858Z 14006KT 07/M01 A3032 RMK A01 T00741009  RH  056%=      5-min Rain = 0
KCO2 141859Z 14005KT 07/M01 A3032 RMK A01 T00731010  RH  056%=      5-min Rain = 0
KCO2 141900Z 14005KT 07/M01 A3032 RMK A01 T00701010  RH  057%=      5-min Rain = 0
KCO2 141901Z 19007KT 07/M01 A3032 RMK A01 T00701009  RH  057%=      5-min Rain = 0
KCO2 141902Z 20006KT 07/M01 A3032 RMK A01 T00721008  RH  057%=      5-min Rain = 0
KCO2 141903Z 19007KT 07/M01 A3032 RMK A01 T00721009  RH  056%=      5-min Rain = 0
KCO2 141904Z 19010KT 07/M01 A3032 RMK A01 T00721008  RH  057%=      5-min Rain = 0
KCO2 141905Z 18009KT 07/M01 A3032 RMK A01 T00741006  RH  056%=      5-min Rain = 0
KCO2 141906Z 17007KT 07/M01 A3032 RMK A01 T00741007  RH  056%=      5-min Rain = 0
KCO2 141907Z 16004KT 08/M01 A3032 RMK A01 T00761005  RH  057%=      5-min Rain = 0
KCO2 141908Z 16003KT 08/M01 A3032 RMK A01 T00791005  RH  055%=      5-min Rain = 0
KCO2 141909Z 21009KT 08/M01 A3032 RMK A01 T00791005  RH  055%=      5-min Rain = 0
KCO2 141910Z 20010KT 08/M01 A3032 RMK A01 T00781005  RH  056%=      5-min Rain = 0
KCO2 141911Z 19007KT 08/M01 A3032 RMK A01 T00781005  RH  056%=      5-min Rain = 0
KCO2 141912Z 19005KT 08/M01 A3031 RMK A01 T00781005  RH  056%=      5-min Rain = 0
KCO2 141913Z 18004KT 08/M01 A3031 RMK A01 T00771006  RH  055%=      5-min Rain = 0
KCO2 141914Z 20007KT 08/M01 A3031 RMK A01 T00771005  RH  056%=      5-min Rain = 0
KCO2 141915Z 20010KT 08/M01 A3031 RMK A01 T00771006  RH  056%=      5-min Rain = 0
KCO2 141916Z 20010KT 08/M01 A3031 RMK A01 T00761006  RH  056%=      5-min Rain = 0
KCO2 141917Z 22010KT 08/M01 A3031 RMK A01 T00771005  RH  056%=      5-min Rain = 0
KCO2 141918Z 20008KT 08/M01 A3031 RMK A01 T00761005  RH  056%=      5-min Rain = 0
KCO2 141919Z 19008KT 08/M01 A3031 RMK A01 T00761005  RH  057%=      5-min Rain = 0
KCO2 141920Z 21006KT 08/M00 A3031 RMK A01 T00771004  RH  057%=      5-min Rain = 0
KCO2 141921Z 20010KT 08/M00 A3031 RMK A01 T00801001  RH  057%=      5-min Rain = 0
KCO2 141922Z 20007KT 08/M00 A3031 RMK A01 T00801004  RH  055%=      5-min Rain = 0
KCO2 141923Z 20010KT 08/M01 A3031 RMK A01 T00781005  RH  056%=      5-min Rain = 0
KCO2 141924Z 18008KT 08/M01 A3031 RMK A01 T00771005  RH  056%=      5-min Rain = 0
KCO2 141925Z 22007KT 08/M01 A3031 RMK A01 T00751006  RH  056%=      5-min Rain = 0
KCO2 141926Z 20010KT 07/M00 A3031 RMK A01 T00741004  RH  058%=      5-min Rain = 0
KCO2 141927Z 20007KT 08/M00 A3031 RMK A01 T00751004  RH  057%=      5-min Rain = 0
KCO2 141928Z 21008KT 08/00 A3031 RMK A01 T007800-0  RH  057%=      5-min Rain = 0
KCO2 141929Z 21008KT 08/M00 A3031 RMK A01 T00811001  RH  056%=      5-min Rain = 0
KCO2 141930Z 21010KT 08/M00 A303 RMK A01 T00801002  RH  056%=      5-min Rain = 0
KCO2 141931Z 20011KT 08/M00 A303 RMK A01 T00801003  RH  056%=      5-min Rain = 0
KCO2 141932Z 19009KT 08/M00 A303 RMK A01 T00791003  RH  056%=      5-min Rain = 0
KCO2 141933Z 19010KT 08/M00 A303 RMK A01 T00791003  RH  056%=      5-min Rain = 0
KCO2 141934Z 20009KT 08/M00 A303 RMK A01 T00781002  RH  057%=      5-min Rain = 0
KCO2 141935Z 20009KT 08/M00 A303 RMK A01 T00791002  RH  057%=      5-min Rain = 0
KCO2 141936Z 20006KT 08/00 A303 RMK A01 T007900-0  RH  057%=      5-min Rain = 0
KCO2 141937Z 20007KT 08/M00 A303 RMK A01 T00811001  RH  056%=      5-min Rain = 0
KCO2 141938Z 19009KT 08/M00 A303 RMK A01 T00791002  RH  056%=      5-min Rain = 0
KCO2 141939Z 19009KT 08/M00 A303 RMK A01 T00791001  RH  057%=      5-min Rain = 0
KCO2 141940Z 20008KT 08/M00 A303 RMK A01 T00801001  RH  056%=      5-min Rain = 0
KCO2 141941Z 19006KT 08/M00 A303 RMK A01 T00801002  RH  056%=      5-min Rain = 0
KCO2 141942Z 20008KT 08/M00 A303 RMK A01 T00791002  RH  057%=      5-min Rain = 0
KCO2 141943Z 18009KT 08/00 A303 RMK A01 T008000-0  RH  057%=      5-min Rain = 0
KCO2 141944Z 20009KT 08/00 A303 RMK A01 T00830001  RH  057%=      5-min Rain = 0
KCO2 141945Z 20007G12KT 08/M00 A3029 RMK A01 T00831001  RH  056%=      5-min Rain = 0
KCO2 141946Z 21006KT 08/00 A3029 RMK A01 T008200-0  RH  056%=      5-min Rain = 0
KCO2 141947Z 21005KT 08/00 A3029 RMK A01 T00820000  RH  056%=      5-min Rain = 0
KCO2 141948Z 20006KT 08/00 A3029 RMK A01 T00830001  RH  056%=      5-min Rain = 0
KCO2 141949Z 18007KT 09/00 A3029 RMK A01 T00850003  RH  056%=      5-min Rain = 0
KCO2 141950Z 17006KT 09/00 A3029 RMK A01 T00850001  RH  055%=      5-min Rain = 0
KCO2 141951Z 22007KT 08/00 A3029 RMK A01 T008300-0  RH  056%=      5-min Rain = 0
KCO2 141952Z 22007KT 08/00 A3029 RMK A01 T00820000  RH  056%=      5-min Rain = 0
KCO2 141953Z 21006KT 08/00 A3029 RMK A01 T00820001  RH  056%=      5-min Rain = 0
KCO2 141954Z 21007KT 08/00 A3029 RMK A01 T00830001  RH  056%=      5-min Rain = 0
KCO2 141955Z 19005KT 08/M00 A3029 RMK A01 T00821001  RH  056%=      5-min Rain = 0
KCO2 141956Z 21006KT 08/M00 A3028 RMK A01 T00801001  RH  057%=      5-min Rain = 0
KCO2 141957Z 24003KT 08/M00 A3028 RMK A01 T00801001  RH  057%=      5-min Rain = 0
KCO2 141958Z 20004KT 08/M00 A3028 RMK A01 T00791001  RH  057%=      5-min Rain = 0
KCO2 141959Z 13003KT 08/00 A3028 RMK A01 T00810001  RH  057%=      5-min Rain = 0
KCO2 142000Z 14006KT 08/00 A3028 RMK A01 T00830001  RH  056%=      5-min Rain = 0
KCO2 142001Z 17006KT 08/00 A3028 RMK A01 T00830001  RH  056%=      5-min Rain = 0
KCO2 142002Z 20007KT 08/00 A3028 RMK A01 T00840003  RH  056%=      5-min Rain = 0
KCO2 142003Z 20006KT 09/00 A3028 RMK A01 T00860002  RH  055%=      5-min Rain = 0
KCO2 142004Z 19005KT 09/00 A3028 RMK A01 T00850001  RH  056%=      5-min Rain = 0
KCO2 142005Z 21006KT 09/00 A3028 RMK A01 T00860003  RH  056%=      5-min Rain = 0
KCO2 142006Z 22006KT 09/00 A3028 RMK A01 T00880003  RH  056%=      5-min Rain = 0
KCO2 142007Z 20003KT 09/00 A3028 RMK A01 T00880003  RH  055%=      5-min Rain = 0
KCO2 142008Z 21004KT 09/00 A3028 RMK A01 T00890004  RH  055%=      5-min Rain = 0
KCO2 142009Z 20004KT 09/00 A3027 RMK A01 T00910004  RH  055%=      5-min Rain = 0
KCO2 142010Z 23005KT 09/00 A3027 RMK A01 T00880001  RH  054%=      5-min Rain = 0
KCO2 142011Z 23007KT 09/00 A3027 RMK A01 T00880004  RH  056%=      5-min Rain = 0
KCO2 142012Z 21005KT 09/00 A3027 RMK A01 T00890003  RH  055%=      5-min Rain = 0
KCO2 142013Z 29001KT 09/00 A3027 RMK A01 T00890004  RH  055%=      5-min Rain = 0
KCO2 142014Z 23004KT 09/00 A3027 RMK A01 T00900004  RH  055%=      5-min Rain = 0
KCO2 142015Z 23004KT 09/00 A3027 RMK A01 T00900002  RH  054%=      5-min Rain = 0
KCO2 142016Z 18003KT 09/00 A3027 RMK A01 T00880002  RH  055%=      5-min Rain = 0
KCO2 142017Z 14005KT 09/00 A3027 RMK A01 T00870003  RH  055%=      5-min Rain = 0
KCO2 142018Z 16007KT 09/01 A3027 RMK A01 T00920005  RH  055%=      5-min Rain = 0
KCO2 142019Z 20006KT 10/01 A3027 RMK A01 T00950005  RH  053%=      5-min Rain = 0
KCO2 142020Z 19004G10KT 10/00 A3027 RMK A01 T00950004  RH  053%=      5-min Rain = 0
KCO2 142021Z 17008KT 10/01 A3027 RMK A01 T00960005  RH  053%=      5-min Rain = 0
KCO2 142022Z 18007KT 10/01 A3027 RMK A01 T00970005  RH  052%=      5-min Rain = 0
KCO2 142023Z 17004KT 10/00 A3027 RMK A01 T00970003  RH  052%=      5-min Rain = 0
KCO2 142024Z 18007G12KT 10/00 A3026 RMK A01 T00950004  RH  053%=      5-min Rain = 0
KCO2 142025Z 17007KT 10/00 A3026 RMK A01 T00970004  RH  052%=      5-min Rain = 0
KCO2 142026Z 16006KT 10/00 A3026 RMK A01 T00960002  RH  052%=      5-min Rain = 0
KCO2 142027Z 16006KT 10/00 A3026 RMK A01 T00950004  RH  053%=      5-min Rain = 0
KCO2 142028Z 16005KT 10/01 A3026 RMK A01 T00980006  RH  053%=      5-min Rain = 0
KCO2 142029Z 16008KT 10/01 A3026 RMK A01 T01000005  RH  052%=      5-min Rain = 0
KCO2 142030Z 17006KT 10/00 A3026 RMK A01 T00990003  RH  051%=      5-min Rain = 0
KCO2 142031Z 16006KT 10/00 A3026 RMK A01 T00970004  RH  052%=      5-min Rain = 0
KCO2 142032Z 17008KT 10/01 A3026 RMK A01 T01000007  RH  052%=      5-min Rain = 0
KCO2 142033Z 16006KT 10/01 A3026 RMK A01 T01020006  RH  051%=      5-min Rain = 0
KCO2 142034Z 15005KT 10/00 A3026 RMK A01 T00980003  RH  051%=      5-min Rain = 0
KCO2 142035Z 18005G10KT 10/01 A3026 RMK A01 T00980006  RH  053%=      5-min Rain = 0
KCO2 142036Z 19009KT 10/01 A3026 RMK A01 T01000007  RH  052%=      5-min Rain = 0
KCO2 142037Z 18005KT 10/01 A3026 RMK A01 T01040007  RH  051%=      5-min Rain = 0
KCO2 142038Z 15005KT 10/01 A3026 RMK A01 T01030005  RH  051%=      5-min Rain = 0
KCO2 142039Z 14002KT 10/00 A3026 RMK A01 T01000003  RH  051%=      5-min Rain = 0
KCO2 142040Z 16002KT 10/01 A3026 RMK A01 T00990005  RH  052%=      5-min Rain = 0
KCO2 142041Z 15004KT 10/01 A3025 RMK A01 T00990005  RH  052%=      5-min Rain = 0
KCO2 142042Z 21008KT 10/01 A3025 RMK A01 T01020008  RH  052%=      5-min Rain = 0
KCO2 142043Z 19006KT 10/01 A3025 RMK A01 T01030006  RH  051%=      5-min Rain = 0
KCO2 142044Z 16006KT 10/01 A3025 RMK A01 T01040006  RH  051%=      5-min Rain = 0
KCO2 142045Z 16007KT 10/01 A3025 RMK A01 T01040006  RH  051%=      5-min Rain = 0
KCO2 142046Z 17005KT 10/01 A3025 RMK A01 T01040006  RH  051%=      5-min Rain = 0
KCO2 142047Z 18011KT 10/01 A3025 RMK A01 T01040006  RH  051%=      5-min Rain = 0
KCO2 142048Z 17011KT 11/01 A3025 RMK A01 T01050006  RH  050%=      5-min Rain = 0
KCO2 142049Z 17008KT 11/01 A3025 RMK A01 T01050006  RH  050%=      5-min Rain = 0
KCO2 142050Z 18006KT 11/01 A3025 RMK A01 T01070007  RH  050%=      5-min Rain = 0
KCO2 142051Z 19008KT 11/01 A3025 RMK A01 T01080008  RH  050%=      5-min Rain = 0
KCO2 142052Z 18008KT 11/01 A3025 RMK A01 T01100007  RH  049%=      5-min Rain = 0
KCO2 142053Z 16004KT 11/01 A3025 RMK A01 T01070005  RH  049%=      5-min Rain = 0
KCO2 142054Z 17007KT 11/00 A3025 RMK A01 T01050004  RH  050%=      5-min Rain = 0
KCO2 142055Z 18007KT 11/01 A3024 RMK A01 T01050007  RH  051%=      5-min Rain = 0
KCO2 142056Z 20008KT 11/01 A3024 RMK A01 T01080008  RH  050%=      5-min Rain = 0
KCO2 142057Z 21007KT 11/01 A3025 RMK A01 T01120009  RH  049%=      5-min Rain = 0
KCO2 142058Z 21006G11KT 11/01 A3025 RMK A01 T01110007  RH  049%=      5-min Rain = 0
KCO2 142059Z 20007KT 11/01 A3025 RMK A01 T01110007  RH  049%=      5-min Rain = 0
KCO2 142100Z 18006KT 11/01 A3025 RMK A01 T01110006  RH  049%=      5-min Rain = 0
KCO2 142101Z 19007KT 11/01 A3025 RMK A01 T01100006  RH  048%=      5-min Rain = 0
KCO2 142102Z 16009KT 11/01 A3025 RMK A01 T01120007  RH  049%=      5-min Rain = 0
KCO2 142103Z 17008KT 11/01 A3025 RMK A01 T01140006  RH  048%=      5-min Rain = 0
KCO2 142104Z 16008KT 11/01 A3024 RMK A01 T01130006  RH  048%=      5-min Rain = 0
KCO2 142105Z 18008KT 12/01 A3025 RMK A01 T01150008  RH  048%=      5-min Rain = 0
KCO2 142106Z 20007KT 12/01 A3025 RMK A01 T01160007  RH  047%=      5-min Rain = 0
KCO2 142107Z 22008KT 12/01 A3025 RMK A01 T01170007  RH  047%=      5-min Rain = 0
KCO2 142108Z 21007G12KT 11/00 A3025 RMK A01 T01140004  RH  047%=      5-min Rain = 0
KCO2 142109Z 19011KT 11/01 A3024 RMK A01 T01130006  RH  048%=      5-min Rain = 0
KCO2 142110Z 19012KT 11/01 A3024 RMK A01 T01130006  RH  048%=      5-min Rain = 0
KCO2 142111Z 19009KT 11/01 A3024 RMK A01 T01130006  RH  048%=      5-min Rain = 0
KCO2 142112Z 19010KT 11/01 A3024 RMK A01 T01140006  RH  048%=      5-min Rain = 0
KCO2 142113Z 20011G16KT 11/01 A3024 RMK A01 T01140006  RH  047%=      5-min Rain = 0
KCO2 142114Z 21011KT 12/01 A3024 RMK A01 T01150006  RH  047%=      5-min Rain = 0
KCO2 142115Z 21011KT 11/01 A3024 RMK A01 T01140005  RH  047%=      5-min Rain = 0
KCO2 142116Z 20009KT 11/01 A3024 RMK A01 T01140007  RH  048%=      5-min Rain = 0
KCO2 142117Z 21011KT 12/01 A3024 RMK A01 T01170010  RH  048%=      5-min Rain = 0
KCO2 142118Z 21012KT 12/01 A3024 RMK A01 T01190007  RH  046%=      5-min Rain = 0
KCO2 142119Z 20007KT 11/00 A3024 RMK A01 T01140004  RH  047%=      5-min Rain = 0
KCO2 142120Z 20007KT 12/01 A3024 RMK A01 T01150007  RH  048%=      5-min Rain = 0
KCO2 142121Z 18005KT 12/01 A3024 RMK A01 T01190010  RH  047%=      5-min Rain = 0
KCO2 142122Z 18005KT 12/01 A3024 RMK A01 T01220010  RH  046%=      5-min Rain = 0
KCO2 142123Z 16007G12KT 12/01 A3024 RMK A01 T01230009  RH  046%=      5-min Rain = 0
KCO2 142124Z 17012KT 12/01 A3024 RMK A01 T01230008  RH  045%=      5-min Rain = 0
KCO2 142125Z 16011KT 12/01 A3024 RMK A01 T01200008  RH  046%=      5-min Rain = 0
KCO2 142126Z 16010KT 12/01 A3024 RMK A01 T01200009  RH  047%=      5-min Rain = 0
KCO2 142127Z 16009KT 12/01 A3024 RMK A01 T01190007  RH  046%=      5-min Rain = 0
KCO2 142128Z 17004KT 12/01 A3024 RMK A01 T01160007  RH  047%=      5-min Rain = 0
KCO2 142129Z 21006KT 12/01 A3024 RMK A01 T01160007  RH  047%=      5-min Rain = 0
KCO2 142130Z 19006KT 11/01 A3024 RMK A01 T01140006  RH  047%=      5-min Rain = 0
KCO2 142131Z 19008KT 12/01 A3024 RMK A01 T01150007  RH  048%=      5-min Rain = 0
KCO2 142132Z 18009KT 12/01 A3024 RMK A01 T01160008  RH  047%=      5-min Rain = 0
KCO2 142133Z 19007KT 12/01 A3024 RMK A01 T01170006  RH  047%=      5-min Rain = 0
KCO2 142134Z 20006KT 12/01 A3023 RMK A01 T01150006  RH  047%=      5-min Rain = 0
KCO2 142135Z 18005KT 11/01 A3023 RMK A01 T01140007  RH  048%=      5-min Rain = 0
KCO2 142136Z 17009KT 12/01 A3023 RMK A01 T01150008  RH  048%=      5-min Rain = 0
KCO2 142137Z 17009KT 12/01 A3023 RMK A01 T01190009  RH  047%=      5-min Rain = 0
KCO2 142138Z 16009KT 12/01 A3023 RMK A01 T01190007  RH  046%=      5-min Rain = 0
KCO2 142139Z 17008KT 12/01 A3023 RMK A01 T01170007  RH  047%=      5-min Rain = 0
KCO2 142140Z 19007KT 12/01 A3023 RMK A01 T01170007  RH  047%=      5-min Rain = 0
KCO2 142141Z 17008KT 12/01 A3023 RMK A01 T01160007  RH  047%=      5-min Rain = 0
KCO2 142142Z 19009KT 12/01 A3023 RMK A01 T01180008  RH  047%=      5-min Rain = 0
KCO2 142143Z 19007KT 12/01 A3023 RMK A01 T01190008  RH  047%=      5-min Rain = 0
KCO2 142144Z 19010KT 12/01 A3023 RMK A01 T01210009  RH  046%=      5-min Rain = 0
KCO2 142145Z 19009KT 12/01 A3023 RMK A01 T01200007  RH  046%=      5-min Rain = 0
KCO2 142146Z 19009KT 12/01 A3023 RMK A01 T01190008  RH  047%=      5-min Rain = 0
KCO2 142147Z 18008KT 12/01 A3023 RMK A01 T01190008  RH  047%=      5-min Rain = 0
KCO2 142148Z 17011KT 12/01 A3023 RMK A01 T01180008  RH  047%=      5-min Rain = 0
KCO2 142149Z 16008KT 12/01 A3023 RMK A01 T01180007  RH  047%=      5-min Rain = 0
KCO2 142150Z 19008KT 12/01 A3023 RMK A01 T01180008  RH  047%=      5-min Rain = 0
KCO2 142151Z 17008KT 12/01 A3022 RMK A01 T01190009  RH  047%=      5-min Rain = 0
KCO2 142152Z 16010KT 12/01 A3022 RMK A01 T01210009  RH  046%=      5-min Rain = 0
KCO2 142153Z 17011KT 12/01 A3022 RMK A01 T01220009  RH  046%=      5-min Rain = 0
KCO2 142154Z 18010KT 12/01 A3022 RMK A01 T01220009  RH  046%=      5-min Rain = 0
KCO2 142155Z 18007KT 12/01 A3022 RMK A01 T01240010  RH  046%=      5-min Rain = 0
KCO2 142156Z 17007KT 13/01 A3022 RMK A01 T01250010  RH  045%=      5-min Rain = 0
KCO2 142157Z 15006KT 12/01 A3022 RMK A01 T01230009  RH  045%=      5-min Rain = 0
KCO2 142158Z 17007KT 12/01 A3022 RMK A01 T01220009  RH  046%=      5-min Rain = 0
KCO2 142159Z 19008KT 12/01 A3022 RMK A01 T01210009  RH  046%=      5-min Rain = 0
KCO2 142200Z 18008KT 12/01 A3022 RMK A01 T01210009  RH  046%=      5-min Rain = 0
KCO2 142201Z 15007KT 12/01 A3022 RMK A01 T01220010  RH  046%=      5-min Rain = 0
KCO2 142202Z 16007KT 12/01 A3022 RMK A01 T01220011  RH  046%=      5-min Rain = 0
KCO2 142203Z 19008KT 12/01 A3022 RMK A01 T01230010  RH  046%=      5-min Rain = 0
KCO2 142204Z 19009KT 12/01 A3022 RMK A01 T01230009  RH  046%=      5-min Rain = 0
KCO2 142205Z 19008KT 12/01 A3022 RMK A01 T01220009  RH  046%=      5-min Rain = 0
KCO2 142206Z 19007KT 12/01 A3022 RMK A01 T01210009  RH  046%=      5-min Rain = 0
KCO2 142207Z 17007KT 12/01 A3022 RMK A01 T01210009  RH  046%=      5-min Rain = 0
KCO2 142208Z 16007KT 12/01 A3021 RMK A01 T01210010  RH  046%=      5-min Rain = 0
KCO2 142209Z 17007KT 12/01 A3021 RMK A01 T01230011  RH  046%=      5-min Rain = 0
KCO2 142210Z 16007KT 12/01 A3021 RMK A01 T01240011  RH  046%=      5-min Rain = 0
KCO2 142211Z 15008KT 13/01 A3021 RMK A01 T01250011  RH  046%=      5-min Rain = 0
KCO2 142212Z 17006KT 13/01 A3021 RMK A01 T01250011  RH  046%=      5-min Rain = 0
KCO2 142213Z 14009KT 13/01 A3021 RMK A01 T01270013  RH  046%=      5-min Rain = 0
KCO2 142214Z 14009KT 13/01 A3021 RMK A01 T01280012  RH  045%=      5-min Rain = 0
KCO2 142215Z 14008KT 13/01 A3021 RMK A01 T01260011  RH  045%=      5-min Rain = 0
KCO2 142216Z 15006KT 12/01 A3021 RMK A01 T01240010  RH  046%=      5-min Rain = 0
KCO2 142217Z 16010KT 12/01 A3021 RMK A01 T01220010  RH  046%=      5-min Rain = 0
KCO2 142218Z 16007KT 12/01 A3021 RMK A01 T01220009  RH  046%=      5-min Rain = 0
KCO2 142219Z 14009KT 12/01 A3021 RMK A01 T01210010  RH  047%=      5-min Rain = 0
KCO2 142220Z 13008KT 12/01 A3021 RMK A01 T01210010  RH  046%=      5-min Rain = 0
KCO2 142221Z 13007KT 12/01 A3021 RMK A01 T01220010  RH  046%=      5-min Rain = 0
KCO2 142222Z 14006KT 12/01 A3021 RMK A01 T01230010  RH  046%=      5-min Rain = 0
KCO2 142223Z 13009KT 12/01 A3021 RMK A01 T01220010  RH  046%=      5-min Rain = 0
KCO2 142224Z 13008KT 12/01 A3021 RMK A01 T01220010  RH  046%=      5-min Rain = 0
KCO2 142225Z 14008KT 12/01 A3021 RMK A01 T01220010  RH  046%=      5-min Rain = 0
KCO2 142226Z 14006KT 12/01 A3021 RMK A01 T01220010  RH  046%=      5-min Rain = 0
KCO2 142227Z 15005KT 12/01 A3021 RMK A01 T01210010  RH  046%=      5-min Rain = 0
KCO2 142228Z 16007KT 12/01 A3021 RMK A01 T01210011  RH  047%=      5-min Rain = 0
KCO2 142229Z 15010KT 12/01 A302 RMK A01 T01230011  RH  046%=      5-min Rain = 0
KCO2 142230Z 15010KT 12/01 A3021 RMK A01 T01240010  RH  045%=      5-min Rain = 0
KCO2 142231Z 16009KT 13/01 A302 RMK A01 T01250010  RH  045%=      5-min Rain = 0
KCO2 142232Z 17006KT 13/01 A302 RMK A01 T01250010  RH  045%=      5-min Rain = 0
KCO2 142233Z 16006KT 13/01 A302 RMK A01 T01260010  RH  045%=      5-min Rain = 0
KCO2 142234Z 16006KT 13/01 A302 RMK A01 T01270010  RH  045%=      5-min Rain = 0
KCO2 142235Z 17006KT 13/01 A302 RMK A01 T01270010  RH  045%=      5-min Rain = 0
KCO2 142236Z 17007KT 13/01 A302 RMK A01 T01270010  RH  045%=      5-min Rain = 0
KCO2 142237Z 16004KT 13/01 A302 RMK A01 T01270009  RH  045%=      5-min Rain = 0
KCO2 142238Z 15004KT 13/01 A302 RMK A01 T01270010  RH  045%=      5-min Rain = 0
KCO2 142239Z 14006KT 13/01 A302 RMK A01 T01270010  RH  045%=      5-min Rain = 0
KCO2 142240Z 16007KT 13/01 A302 RMK A01 T01270010  RH  045%=      5-min Rain = 0
KCO2 142241Z 18008KT 13/01 A302 RMK A01 T01270009  RH  044%=      5-min Rain = 0
KCO2 142242Z 17007KT 13/01 A302 RMK A01 T01280009  RH  044%=      5-min Rain = 0
KCO2 142243Z 15009KT 13/01 A302 RMK A01 T01290010  RH  044%=      5-min Rain = 0
KCO2 142244Z 15007KT 13/01 A302 RMK A01 T01280009  RH  044%=      5-min Rain = 0
KCO2 142245Z 18007KT 13/01 A302 RMK A01 T01270008  RH  044%=      5-min Rain = 0
KCO2 142246Z 18009KT 13/01 A302 RMK A01 T01270009  RH  045%=      5-min Rain = 0
KCO2 142247Z 17007KT 13/01 A302 RMK A01 T01260009  RH  045%=      5-min Rain = 0
KCO2 142248Z 16006KT 13/01 A302 RMK A01 T01270009  RH  045%=      5-min Rain = 0
KCO2 142249Z 18006KT 13/01 A302 RMK A01 T01270010  RH  045%=      5-min Rain = 0
KCO2 142250Z 17006KT 13/01 A302 RMK A01 T01280011  RH  045%=      5-min Rain = 0
KCO2 142251Z 16009KT 13/01 A302 RMK A01 T01300010  RH  044%=      5-min Rain = 0
KCO2 142252Z 15011KT 13/01 A302 RMK A01 T01310010  RH  044%=      5-min Rain = 0
KCO2 142253Z 14013G18KT 13/01 A302 RMK A01 T01310011  RH  044%=      5-min Rain = 0
KCO2 142254Z 15014KT 13/01 A302 RMK A01 T01300011  RH  044%=      5-min Rain = 0
KCO2 142255Z 14012KT 13/01 A302 RMK A01 T01280011  RH  045%=      5-min Rain = 0
KCO2 142256Z 13010KT 13/01 A302 RMK A01 T01270012  RH  045%=      5-min Rain = 0
KCO2 142257Z 15010KT 13/01 A302 RMK A01 T01280012  RH  045%=      5-min Rain = 0
KCO2 142258Z 15010KT 13/01 A302 RMK A01 T01290012  RH  045%=      5-min Rain = 0
KCO2 142259Z 15012KT 13/01 A302 RMK A01 T01290011  RH  044%=      5-min Rain = 0
KCO2 142300Z 15012KT 13/01 A302 RMK A01 T01280010  RH  044%=      5-min Rain = 0
KCO2 142301Z 15011KT 13/01 A302 RMK A01 T01270010  RH  045%=      5-min Rain = 0
KCO2 142302Z 14012KT 13/01 A302 RMK A01 T01260010  RH  045%=      5-min Rain = 0
KCO2 142303Z 14009KT 13/01 A302 RMK A01 T01260011  RH  045%=      5-min Rain = 0
KCO2 142304Z 14009KT 13/01 A302 RMK A01 T01270012  RH  045%=      5-min Rain = 0
KCO2 142305Z 13010KT 13/01 A302 RMK A01 T01280011  RH  045%=      5-min Rain = 0
KCO2 142306Z 14010KT 13/01 A302 RMK A01 T01280010  RH  044%=      5-min Rain = 0
KCO2 142307Z 14011KT 13/01 A302 RMK A01 T01260009  RH  045%=      5-min Rain = 0
KCO2 142308Z 14011KT 13/01 A302 RMK A01 T01260009  RH  045%=      5-min Rain = 0
KCO2 142309Z 14011KT 13/01 A302 RMK A01 T01260009  RH  045%=      5-min Rain = 0
KCO2 142310Z 15008KT 13/01 A302 RMK A01 T01250009  RH  045%=      5-min Rain = 0
KCO2 142311Z 13008KT 13/01 A302 RMK A01 T01250010  RH  045%=      5-min Rain = 0
KCO2 142312Z 15010KT 13/01 A302 RMK A01 T01250010  RH  045%=      5-min Rain = 0
KCO2 142313Z 15008KT 13/01 A302 RMK A01 T01250009  RH  045%=      5-min Rain = 0
KCO2 142314Z 14008KT 13/01 A302 RMK A01 T01250011  RH  045%=      5-min Rain = 0
KCO2 142315Z 14011KT 13/01 A302 RMK A01 T01260011  RH  045%=      5-min Rain = 0
KCO2 142316Z 14009KT 13/01 A302 RMK A01 T01260010  RH  045%=      5-min Rain = 0
KCO2 142317Z 14010KT 13/01 A302 RMK A01 T01260010  RH  045%=      5-min Rain = 0
KCO2 142318Z 13009KT 13/01 A302 RMK A01 T01250010  RH  045%=      5-min Rain = 0
KCO2 142319Z 13010KT 13/01 A302 RMK A01 T01250010  RH  045%=      5-min Rain = 0
KCO2 142320Z 14011KT 13/01 A302 RMK A01 T01260010  RH  045%=      5-min Rain = 0
KCO2 142321Z 14011KT 13/01 A302 RMK A01 T01260011  RH  045%=      5-min Rain = 0
KCO2 142322Z 14011KT 13/01 A302 RMK A01 T01260010  RH  045%=      5-min Rain = 0
KCO2 142323Z 14011KT 13/01 A302 RMK A01 T01260010  RH  045%=      5-min Rain = 0
KCO2 142324Z 14010KT 13/01 A302 RMK A01 T01260010  RH  045%=      5-min Rain = 0
KCO2 142325Z 14011KT 13/01 A302 RMK A01 T01260010  RH  045%=      5-min Rain = 0
KCO2 142326Z 15010KT 13/01 A3019 RMK A01 T01260010  RH  045%=      5-min Rain = 0
KCO2 142327Z 14008KT 13/01 A3019 RMK A01 T01250010  RH  045%=      5-min Rain = 0
KCO2 142328Z 15010KT 13/01 A3019 RMK A01 T01260011  RH  045%=      5-min Rain = 0
KCO2 142329Z 15009KT 13/01 A3019 RMK A01 T01260011  RH  045%=      5-min Rain = 0
KCO2 142330Z 15009KT 13/01 A3019 RMK A01 T01260012  RH  046%=      5-min Rain = 0
KCO2 142331Z 16009KT 13/01 A302 RMK A01 T01260013  RH  046%=      5-min Rain = 0
KCO2 142332Z 14010KT 13/01 A3019 RMK A01 T01260012  RH  046%=      5-min Rain = 0
KCO2 142333Z 14010KT 13/01 A3019 RMK A01 T01260012  RH  045%=      5-min Rain = 0
KCO2 142334Z 15010KT 13/01 A3019 RMK A01 T01270012  RH  045%=      5-min Rain = 0
KCO2 142335Z 14008KT 13/01 A3019 RMK A01 T01260012  RH  046%=      5-min Rain = 0
KCO2 142336Z 14011KT 13/01 A3019 RMK A01 T01260012  RH  046%=      5-min Rain = 0
KCO2 142337Z 14010KT 13/01 A3019 RMK A01 T01260012  RH  046%=      5-min Rain = 0
KCO2 142338Z 14011KT 13/01 A3019 RMK A01 T01250012  RH  046%=      5-min Rain = 0
KCO2 142339Z 15012KT 13/01 A3019 RMK A01 T01250010  RH  046%=      5-min Rain = 0
KCO2 142340Z 14010KT 12/01 A3019 RMK A01 T01240011  RH  046%=      5-min Rain = 0
KCO2 142341Z 14009KT 12/01 A3019 RMK A01 T01240011  RH  046%=      5-min Rain = 0
KCO2 142342Z 15010KT 12/01 A3019 RMK A01 T01240011  RH  046%=      5-min Rain = 0
KCO2 142343Z 14009KT 12/01 A3019 RMK A01 T01240011  RH  046%=      5-min Rain = 0
KCO2 142344Z 14008KT 12/01 A3019 RMK A01 T01240012  RH  046%=      5-min Rain = 0
KCO2 142345Z 14008KT 12/01 A3019 RMK A01 T01240012  RH  046%=      5-min Rain = 0
KCO2 142346Z 14010KT 12/01 A3019 RMK A01 T01240012  RH  047%=      5-min Rain = 0
KCO2 142347Z 14011KT 12/01 A3019 RMK A01 T01240013  RH  047%=      5-min Rain = 0
KCO2 142348Z 15011KT 12/01 A3019 RMK A01 T01240013  RH  047%=      5-min Rain = 0
KCO2 142349Z 14011KT 12/01 A3019 RMK A01 T01230013  RH  047%=      5-min Rain = 0
KCO2 142350Z 14011KT 12/01 A3019 RMK A01 T01230013  RH  047%=      5-min Rain = 0
KCO2 142351Z 14012KT 12/01 A3019 RMK A01 T01220013  RH  047%=      5-min Rain = 0
KCO2 142352Z 14011KT 12/01 A3019 RMK A01 T01220013  RH  047%=      5-min Rain = 0
KCO2 142353Z 14011KT 12/01 A3019 RMK A01 T01210013  RH  047%=      5-min Rain = 0
KCO2 142354Z 14012KT 12/01 A3019 RMK A01 T01210013  RH  047%=      5-min Rain = 0
KCO2 142355Z 14010G15KT 12/01 A3019 RMK A01 T01200013  RH  048%=      5-min Rain = 0
KCO2 142356Z 14010KT 12/01 A3019 RMK A01 T01200013  RH  048%=      5-min Rain = 0
KCO2 142357Z 15010KT 12/01 A3019 RMK A01 T01200013  RH  048%=      5-min Rain = 0
KCO2 142358Z 14009KT 12/01 A3019 RMK A01 T01200013  RH  048%=      5-min Rain = 0
KCO2 142359Z 14011KT 12/01 A3019 RMK A01 T01190014  RH  048%=      5-min Rain = 0
KCO2 150000Z 14008KT 12/01 A3019 RMK A01 T01190014  RH  048%=      5-min Rain = 0
KCO2 150001Z 15011KT 12/01 A3019 RMK A01 T01190014  RH  049%=      5-min Rain = 0
KCO2 150002Z 15010KT 12/02 A3019 RMK A01 T01180015  RH  049%=      5-min Rain = 0
KCO2 150003Z 15010G15KT 12/02 A3019 RMK A01 T01180015  RH  049%=      5-min Rain = 0
KCO2 150004Z 14012KT 12/02 A3019 RMK A01 T01180015  RH  049%=      5-min Rain = 0
KCO2 150005Z 14012KT 12/01 A3019 RMK A01 T01170014  RH  049%=      5-min Rain = 0
KCO2 150006Z 15012KT 12/02 A3019 RMK A01 T01170015  RH  049%=      5-min Rain = 0
KCO2 150007Z 15010KT 12/02 A3019 RMK A01 T01170015  RH  050%=      5-min Rain = 0
KCO2 150008Z 15009KT 12/02 A3019 RMK A01 T01160015  RH  050%=      5-min Rain = 0
KCO2 150009Z 15010KT 12/02 A3019 RMK A01 T01150015  RH  050%=      5-min Rain = 0
KCO2 150010Z 14012KT 12/02 A3018 RMK A01 T01150015  RH  050%=      5-min Rain = 0
KCO2 150011Z 15011KT 12/02 A3018 RMK A01 T01150015  RH  050%=      5-min Rain = 0
KCO2 150012Z 14011KT 11/02 A3018 RMK A01 T01140015  RH  050%=      5-min Rain = 0
KCO2 150013Z 15009KT 11/02 A3018 RMK A01 T01140015  RH  051%=      5-min Rain = 0
KCO2 150014Z 15011KT 11/02 A3018 RMK A01 T01130015  RH  051%=      5-min Rain = 0
KCO2 150015Z 15010KT 11/02 A3018 RMK A01 T01130015  RH  051%=      5-min Rain = 0
KCO2 150016Z 15012KT 11/02 A3018 RMK A01 T01130015  RH  051%=      5-min Rain = 0
KCO2 150017Z 15011KT 11/02 A3018 RMK A01 T01120015  RH  051%=      5-min Rain = 0
KCO2 150018Z 15009KT 11/02 A3018 RMK A01 T01120016  RH  052%=      5-min Rain = 0
KCO2 150019Z 15010KT 11/02 A3018 RMK A01 T01110016  RH  052%=      5-min Rain = 0
KCO2 150020Z 15009KT 11/02 A3018 RMK A01 T01100016  RH  052%=      5-min Rain = 0
KCO2 150021Z 15010KT 11/02 A3018 RMK A01 T01100016  RH  052%=      5-min Rain = 0
KCO2 150022Z 15010KT 11/02 A3018 RMK A01 T01090016  RH  053%=      5-min Rain = 0
KCO2 150023Z 15011KT 11/02 A3018 RMK A01 T01090017  RH  053%=      5-min Rain = 0
KCO2 150024Z 15010KT 11/02 A3018 RMK A01 T01090017  RH  053%=      5-min Rain = 0
KCO2 150025Z 15010KT 11/02 A3018 RMK A01 T01080017  RH  053%=      5-min Rain = 0
KCO2 150026Z 15010KT 11/02 A3018 RMK A01 T01080017  RH  053%=      5-min Rain = 0
KCO2 150027Z 15010KT 11/02 A3018 RMK A01 T01070017  RH  054%=      5-min Rain = 0
KCO2 150028Z 15009KT 11/02 A3018 RMK A01 T01070017  RH  054%=      5-min Rain = 0
KCO2 150029Z 15009KT 11/02 A3018 RMK A01 T01070017  RH  054%=      5-min Rain = 0
KCO2 150030Z 15009KT 11/02 A3018 RMK A01 T01060017  RH  054%=      5-min Rain = 0
KCO2 150031Z 15010KT 11/02 A3018 RMK A01 T01060018  RH  054%=      5-min Rain = 0
KCO2 150032Z 15011KT 11/02 A3019 RMK A01 T01050017  RH  055%=      5-min Rain = 0
KCO2 150033Z 14009KT 11/02 A3019 RMK A01 T01050017  RH  055%=      5-min Rain = 0
KCO2 150034Z 14008KT 11/02 A3019 RMK A01 T01050018  RH  055%=      5-min Rain = 0
KCO2 150035Z 14008KT 10/02 A3019 RMK A01 T01040018  RH  055%=      5-min Rain = 0
KCO2 150036Z 14007KT 10/02 A3019 RMK A01 T01020018  RH  056%=      5-min Rain = 0
KCO2 150037Z 14008KT 10/02 A3019 RMK A01 T01010018  RH  056%=      5-min Rain = 0
KCO2 150038Z 14007KT 10/02 A3019 RMK A01 T01010018  RH  056%=      5-min Rain = 0
KCO2 150039Z 14008KT 10/02 A3019 RMK A01 T00990018  RH  057%=      5-min Rain = 0
KCO2 150040Z 14008KT 10/02 A3019 RMK A01 T00980017  RH  057%=      5-min Rain = 0
KCO2 150041Z 14008KT 10/02 A3019 RMK A01 T00980017  RH  057%=      5-min Rain = 0
KCO2 150042Z 14008KT 10/02 A3019 RMK A01 T00970016  RH  057%=      5-min Rain = 0
KCO2 150043Z 13008KT 10/02 A3019 RMK A01 T00970016  RH  057%=      5-min Rain = 0
KCO2 150044Z 14007KT 10/02 A3019 RMK A01 T00970016  RH  057%=      5-min Rain = 0
KCO2 150045Z 14007KT 10/02 A3019 RMK A01 T00970016  RH  057%=      5-min Rain = 0
KCO2 150046Z 14007KT 10/02 A3019 RMK A01 T00960016  RH  057%=      5-min Rain = 0
KCO2 150047Z 14007KT 10/02 A3019 RMK A01 T00950015  RH  057%=      5-min Rain = 0
KCO2 150048Z 13007KT 09/02 A3019 RMK A01 T00940015  RH  058%=      5-min Rain = 0
KCO2 150049Z 13008KT 09/02 A3019 RMK A01 T00940015  RH  058%=      5-min Rain = 0
KCO2 150050Z 14008KT 09/02 A3019 RMK A01 T00930015  RH  058%=      5-min Rain = 0
KCO2 150051Z 14007KT 09/02 A3019 RMK A01 T00930015  RH  058%=      5-min Rain = 0
KCO2 150052Z 14008KT 09/01 A3019 RMK A01 T00920014  RH  058%=      5-min Rain = 0
KCO2 150053Z 14007KT 09/01 A3019 RMK A01 T00930014  RH  058%=      5-min Rain = 0
KCO2 150054Z 14008KT 09/01 A3019 RMK A01 T00920014  RH  058%=      5-min Rain = 0
KCO2 150055Z 14008KT 09/01 A3019 RMK A01 T00920014  RH  058%=      5-min Rain = 0
KCO2 150056Z 14007KT 09/01 A3019 RMK A01 T00910014  RH  058%=      5-min Rain = 0
KCO2 150057Z 13008KT 09/01 A3019 RMK A01 T00910014  RH  059%=      5-min Rain = 0
KCO2 150058Z 13008KT 09/01 A3019 RMK A01 T00900014  RH  059%=      5-min Rain = 0
KCO2 150059Z 13008KT 09/01 A3019 RMK A01 T00890014  RH  059%=      5-min Rain = 0
KCO2 150100Z 13007KT 09/01 A3019 RMK A01 T00880014  RH  060%=      5-min Rain = 0
KCO2 150101Z 13008KT 09/01 A3019 RMK A01 T00870014  RH  060%=      5-min Rain = 0
KCO2 150102Z 13007KT 09/01 A3019 RMK A01 T00870014  RH  060%=      5-min Rain = 0
KCO2 150103Z 13008KT 09/01 A3019 RMK A01 T00870014  RH  060%=      5-min Rain = 0
KCO2 150104Z 13007KT 09/01 A3019 RMK A01 T00860014  RH  060%=      5-min Rain = 0
KCO2 150105Z 13007KT 09/01 A3019 RMK A01 T00860014  RH  061%=      5-min Rain = 0
KCO2 150106Z 13007KT 09/01 A3019 RMK A01 T00850014  RH  061%=      5-min Rain = 0
KCO2 150107Z 13007KT 09/01 A3019 RMK A01 T00850014  RH  061%=      5-min Rain = 0
KCO2 150108Z 13007KT 08/01 A3019 RMK A01 T00840014  RH  061%=      5-min Rain = 0
KCO2 150109Z 13007KT 08/01 A3019 RMK A01 T00840014  RH  061%=      5-min Rain = 0
KCO2 150110Z 13008KT 08/01 A3019 RMK A01 T00840014  RH  061%=      5-min Rain = 0
KCO2 150111Z 14007KT 08/01 A3019 RMK A01 T00840014  RH  061%=      5-min Rain = 0
KCO2 150112Z 13007KT 08/01 A3019 RMK A01 T00830013  RH  062%=      5-min Rain = 0
KCO2 150113Z 13007KT 08/01 A3019 RMK A01 T00830014  RH  062%=      5-min Rain = 0
KCO2 150114Z 13007KT 08/01 A3019 RMK A01 T00820014  RH  062%=      5-min Rain = 0
KCO2 150115Z 14007KT 08/01 A3019 RMK A01 T00830014  RH  062%=      5-min Rain = 0
KCO2 150116Z 14007KT 08/01 A3019 RMK A01 T00820014  RH  062%=      5-min Rain = 0
KCO2 150117Z 14008KT 08/01 A3019 RMK A01 T00820014  RH  062%=      5-min Rain = 0
KCO2 150118Z 14008KT 08/01 A3019 RMK A01 T00820014  RH  062%=      5-min Rain = 0
KCO2 150119Z 14007KT 08/02 A3019 RMK A01 T00820015  RH  062%=      5-min Rain = 0
KCO2 150120Z 14007KT 08/01 A3019 RMK A01 T00820014  RH  062%=      5-min Rain = 0
KCO2 150121Z 14007KT 08/02 A3019 RMK A01 T00820015  RH  062%=      5-min Rain = 0
KCO2 150122Z 14007KT 08/01 A3019 RMK A01 T00810014  RH  063%=      5-min Rain = 0
KCO2 150123Z 14007KT 08/02 A3019 RMK A01 T00810015  RH  063%=      5-min Rain = 0
KCO2 150124Z 14007KT 08/01 A3019 RMK A01 T00810014  RH  063%=      5-min Rain = 0
KCO2 150125Z 14007KT 08/01 A3019 RMK A01 T00800014  RH  063%=      5-min Rain = 0
KCO2 150126Z 14007KT 08/02 A3019 RMK A01 T00800015  RH  063%=      5-min Rain = 0
KCO2 150127Z 14007KT 08/02 A3019 RMK A01 T00800015  RH  063%=      5-min Rain = 0
KCO2 150128Z 14007KT 08/02 A3019 RMK A01 T00800015  RH  064%=      5-min Rain = 0
KCO2 150129Z 14007KT 08/01 A3019 RMK A01 T00780014  RH  064%=      5-min Rain = 0
KCO2 150130Z 14007KT 08/01 A3019 RMK A01 T00780014  RH  064%=      5-min Rain = 0
KCO2 150131Z 14007KT 08/01 A3019 RMK A01 T00780014  RH  064%=      5-min Rain = 0
KCO2 150132Z 14007KT 08/01 A3019 RMK A01 T00770014  RH  065%=      5-min Rain = 0
KCO2 150133Z 14007KT 08/01 A302 RMK A01 T00760014  RH  065%=      5-min Rain = 0
KCO2 150134Z 14007KT 08/01 A302 RMK A01 T00760014  RH  065%=      5-min Rain = 0
KCO2 150135Z 14007KT 08/01 A302 RMK A01 T00750014  RH  065%=      5-min Rain = 0
KCO2 150136Z 14006KT 08/01 A302 RMK A01 T00750014  RH  065%=      5-min Rain = 0
KCO2 150137Z 14006KT 07/01 A302 RMK A01 T00740014  RH  066%=      5-min Rain = 0
KCO2 150138Z 14006KT 07/01 A302 RMK A01 T00740014  RH  066%=      5-min Rain = 0
KCO2 150139Z 14006KT 07/01 A302 RMK A01 T00730014  RH  066%=      5-min Rain = 0
KCO2 150140Z 14006KT 07/01 A302 RMK A01 T00720014  RH  066%=      5-min Rain = 0
KCO2 150141Z 14006KT 07/01 A302 RMK A01 T00720014  RH  066%=      5-min Rain = 0
KCO2 150142Z 14006KT 07/01 A302 RMK A01 T00710013  RH  067%=      5-min Rain = 0
KCO2 150143Z 14006KT 07/01 A302 RMK A01 T00710014  RH  067%=      5-min Rain = 0
KCO2 150144Z 14006KT 07/01 A302 RMK A01 T00700013  RH  067%=      5-min Rain = 0
KCO2 150145Z 14006KT 07/01 A302 RMK A01 T00690013  RH  067%=      5-min Rain = 0
KCO2 150146Z 14007KT 07/01 A302 RMK A01 T00690013  RH  068%=      5-min Rain = 0
KCO2 150147Z 14006KT 07/01 A302 RMK A01 T00680013  RH  068%=      5-min Rain = 0
KCO2 150148Z 14006KT 07/01 A302 RMK A01 T00670013  RH  068%=      5-min Rain = 0
KCO2 150149Z 13007KT 07/01 A302 RMK A01 T00670013  RH  069%=      5-min Rain = 0
KCO2 150150Z 13007KT 07/01 A302 RMK A01 T00670013  RH  069%=      5-min Rain = 0
KCO2 150151Z 14007KT 07/01 A302 RMK A01 T00660013  RH  069%=      5-min Rain = 0
KCO2 150152Z 14006KT 07/01 A302 RMK A01 T00660013  RH  069%=      5-min Rain = 0
KCO2 150153Z 13006KT 07/01 A302 RMK A01 T00650013  RH  069%=      5-min Rain = 0
KCO2 150154Z 13006KT 07/01 A302 RMK A01 T00650013  RH  069%=      5-min Rain = 0
KCO2 150155Z 13006KT 06/01 A302 RMK A01 T00640013  RH  070%=      5-min Rain = 0
KCO2 150156Z 13006KT 06/01 A302 RMK A01 T00640013  RH  070%=      5-min Rain = 0
KCO2 150157Z 13006KT 06/01 A302 RMK A01 T00630013  RH  070%=      5-min Rain = 0
KCO2 150158Z 13006KT 06/01 A302 RMK A01 T00630013  RH  070%=      5-min Rain = 0
KCO2 150159Z 14006KT 06/01 A302 RMK A01 T00630013  RH  070%=      5-min Rain = 0
KCO2 150200Z 13005KT 06/01 A302 RMK A01 T00630013  RH  070%=      5-min Rain = 0
KCO2 150201Z 13006KT 06/01 A302 RMK A01 T00620012  RH  070%=      5-min Rain = 0
KCO2 150202Z 13005KT 06/01 A302 RMK A01 T00620012  RH  070%=      5-min Rain = 0
KCO2 150203Z 13006KT 06/01 A302 RMK A01 T00610012  RH  071%=      5-min Rain = 0
KCO2 150204Z 13006KT 06/01 A302 RMK A01 T00610012  RH  071%=      5-min Rain = 0
KCO2 150205Z 13006KT 06/01 A302 RMK A01 T00610012  RH  071%=      5-min Rain = 0
KCO2 150206Z 13006KT 06/01 A302 RMK A01 T00610012  RH  071%=      5-min Rain = 0
KCO2 150207Z 13006KT 06/01 A302 RMK A01 T00610012  RH  071%=      5-min Rain = 0
KCO2 150208Z 13006KT 06/01 A302 RMK A01 T00610012  RH  071%=      5-min Rain = 0
KCO2 150209Z 13006KT 06/01 A302 RMK A01 T00610012  RH  071%=      5-min Rain = 0
KCO2 150210Z 13006KT 06/01 A302 RMK A01 T00600012  RH  071%=      5-min Rain = 0
KCO2 150211Z 13007KT 06/01 A302 RMK A01 T00600012  RH  071%=      5-min Rain = 0
KCO2 150212Z 13007KT 06/01 A302 RMK A01 T00600012  RH  071%=      5-min Rain = 0
KCO2 150213Z 13007KT 06/01 A302 RMK A01 T00600012  RH  071%=      5-min Rain = 0
KCO2 150214Z 13007KT 06/01 A302 RMK A01 T00600012  RH  071%=      5-min Rain = 0
KCO2 150215Z 13007KT 06/01 A302 RMK A01 T00590012  RH  071%=      5-min Rain = 0
KCO2 150216Z 13007KT 06/01 A302 RMK A01 T00590012  RH  072%=      5-min Rain = 0
KCO2 150217Z 13007KT 06/01 A302 RMK A01 T00580012  RH  072%=      5-min Rain = 0
KCO2 150218Z 13007KT 06/01 A302 RMK A01 T00580012  RH  072%=      5-min Rain = 0
KCO2 150219Z 14007KT 06/01 A302 RMK A01 T00570012  RH  073%=      5-min Rain = 0
KCO2 150220Z 13007KT 06/01 A302 RMK A01 T00570012  RH  073%=      5-min Rain = 0
KCO2 150221Z 13007KT 06/01 A302 RMK A01 T00560012  RH  073%=      5-min Rain = 0
KCO2 150222Z 14007KT 06/01 A302 RMK A01 T00560013  RH  074%=      5-min Rain = 0
KCO2 150223Z 14007KT 06/01 A302 RMK A01 T00560013  RH  074%=      5-min Rain = 0
KCO2 150224Z 14007KT 06/01 A302 RMK A01 T00560013  RH  074%=      5-min Rain = 0
KCO2 150225Z 14007KT 06/01 A302 RMK A01 T00550013  RH  074%=      5-min Rain = 0
KCO2 150226Z 14007KT 06/01 A302 RMK A01 T00550012  RH  074%=      5-min Rain = 0
KCO2 150227Z 14007KT 05/01 A302 RMK A01 T00540012  RH  074%=      5-min Rain = 0
KCO2 150228Z 14007KT 05/01 A302 RMK A01 T00540012  RH  075%=      5-min Rain = 0
KCO2 150229Z 14007KT 05/01 A302 RMK A01 T00530012  RH  075%=      5-min Rain = 0
KCO2 150230Z 14007KT 05/01 A302 RMK A01 T00530012  RH  075%=      5-min Rain = 0
KCO2 150231Z 14007KT 05/01 A302 RMK A01 T00530012  RH  075%=      5-min Rain = 0
KCO2 150232Z 14007KT 05/01 A302 RMK A01 T00530012  RH  075%=      5-min Rain = 0
KCO2 150233Z 14007KT 05/01 A302 RMK A01 T00530012  RH  075%=      5-min Rain = 0
KCO2 150234Z 14007KT 05/01 A302 RMK A01 T00540012  RH  074%=      5-min Rain = 0
KCO2 150235Z 14007KT 05/01 A302 RMK A01 T00540012  RH  074%=      5-min Rain = 0
KCO2 150236Z 14006KT 06/01 A302 RMK A01 T00550012  RH  074%=      5-min Rain = 0
KCO2 150237Z 14007KT 06/01 A302 RMK A01 T00550012  RH  074%=      5-min Rain = 0
KCO2 150238Z 14007KT 06/01 A302 RMK A01 T00550012  RH  074%=      5-min Rain = 0
KCO2 150239Z 14007KT 06/01 A302 RMK A01 T00550012  RH  074%=      5-min Rain = 0
KCO2 150240Z 14007KT 06/01 A302 RMK A01 T00550012  RH  074%=      5-min Rain = 0
KCO2 150241Z 14006KT 06/01 A302 RMK A01 T00560012  RH  074%=      5-min Rain = 0
KCO2 150242Z 14006KT 06/01 A302 RMK A01 T00550012  RH  074%=      5-min Rain = 0
KCO2 150243Z 14006KT 06/01 A302 RMK A01 T00560013  RH  074%=      5-min Rain = 0
KCO2 150244Z 14007KT 06/01 A302 RMK A01 T00560013  RH  074%=      5-min Rain = 0
KCO2 150245Z 14006KT 06/01 A302 RMK A01 T00560013  RH  074%=      5-min Rain = 0
KCO2 150246Z 14006KT 06/01 A302 RMK A01 T00560013  RH  074%=      5-min Rain = 0
KCO2 150247Z 14006KT 06/01 A302 RMK A01 T00560013  RH  074%=      5-min Rain = 0
KCO2 150248Z 14007KT 06/01 A302 RMK A01 T00570013  RH  074%=      5-min Rain = 0
KCO2 150249Z 14007KT 06/01 A302 RMK A01 T00560013  RH  074%=      5-min Rain = 0
KCO2 150250Z 14007KT 06/01 A302 RMK A01 T00560013  RH  074%=      5-min Rain = 0
KCO2 150251Z 15007KT 06/01 A302 RMK A01 T00560013  RH  074%=      5-min Rain = 0
KCO2 150252Z 15008KT 06/01 A302 RMK A01 T00560014  RH  074%=      5-min Rain = 0
KCO2 150253Z 14008KT 06/01 A302 RMK A01 T00560014  RH  074%=      5-min Rain = 0
KCO2 150254Z 15007KT 06/01 A302 RMK A01 T00570014  RH  074%=      5-min Rain = 0
KCO2 150255Z 15008KT 06/01 A302 RMK A01 T00580014  RH  073%=      5-min Rain = 0
KCO2 150256Z 14008KT 06/01 A302 RMK A01 T00580014  RH  073%=      5-min Rain = 0
KCO2 150257Z 14008KT 06/01 A302 RMK A01 T00590014  RH  073%=      5-min Rain = 0
KCO2 150258Z 15008KT 06/01 A302 RMK A01 T00590014  RH  073%=      5-min Rain = 0
KCO2 150259Z 15008KT 06/01 A302 RMK A01 T00590014  RH  073%=      5-min Rain = 0
KCO2 150300Z 15008KT 06/01 A302 RMK A01 T00590014  RH  073%=      5-min Rain = 0
KCO2 150301Z 15007KT 06/01 A302 RMK A01 T00600014  RH  073%=      5-min Rain = 0
KCO2 150302Z 15008KT 06/01 A302 RMK A01 T00590014  RH  073%=      5-min Rain = 0
KCO2 150303Z 15008KT 06/01 A302 RMK A01 T00600014  RH  073%=      5-min Rain = 0
KCO2 150304Z 15008KT 06/02 A302 RMK A01 T00600015  RH  073%=      5-min Rain = 0
KCO2 150305Z 14008KT 06/01 A302 RMK A01 T00590014  RH  073%=      5-min Rain = 0
KCO2 150306Z 15008KT 06/01 A302 RMK A01 T00590014  RH  073%=      5-min Rain = 0
KCO2 150307Z 15007KT 06/01 A302 RMK A01 T00590014  RH  073%=      5-min Rain = 0
KCO2 150308Z 15008KT 06/01 A302 RMK A01 T00580014  RH  073%=      5-min Rain = 0
KCO2 150309Z 15007KT 06/01 A302 RMK A01 T00580014  RH  073%=      5-min Rain = 0
KCO2 150310Z 14007KT 06/01 A302 RMK A01 T00580014  RH  073%=      5-min Rain = 0
KCO2 150311Z 15007KT 06/01 A302 RMK A01 T00580014  RH  073%=      5-min Rain = 0
KCO2 150312Z 15007KT 06/01 A302 RMK A01 T00580014  RH  073%=      5-min Rain = 0
KCO2 150313Z 15006KT 06/01 A302 RMK A01 T00570013  RH  073%=      5-min Rain = 0
KCO2 150314Z 15006KT 06/01 A302 RMK A01 T00570013  RH  074%=      5-min Rain = 0
KCO2 150315Z 14006KT 06/01 A302 RMK A01 T00560013  RH  074%=      5-min Rain = 0
KCO2 150316Z 14006KT 06/01 A302 RMK A01 T00550013  RH  074%=      5-min Rain = 0
KCO2 150317Z 14006KT 05/01 A302 RMK A01 T00540012  RH  074%=      5-min Rain = 0
KCO2 150318Z 14006KT 05/01 A302 RMK A01 T00530012  RH  075%=      5-min Rain = 0
KCO2 150319Z 14006KT 05/01 A302 RMK A01 T00520012  RH  075%=      5-min Rain = 0
KCO2 150320Z 14006KT 05/01 A302 RMK A01 T00520012  RH  075%=      5-min Rain = 0
KCO2 150321Z 14005KT 05/01 A302 RMK A01 T00510011  RH  076%=      5-min Rain = 0
KCO2 150322Z 14006KT 05/01 A302 RMK A01 T00500011  RH  076%=      5-min Rain = 0
KCO2 150323Z 15006KT 05/01 A302 RMK A01 T00490011  RH  077%=      5-min Rain = 0
KCO2 150324Z 15006KT 05/01 A302 RMK A01 T00480011  RH  077%=      5-min Rain = 0
KCO2 150325Z 14006KT 05/01 A302 RMK A01 T00480011  RH  077%=      5-min Rain = 0
KCO2 150326Z 14006KT 05/01 A302 RMK A01 T00470011  RH  077%=      5-min Rain = 0
KCO2 150327Z 15007KT 05/01 A302 RMK A01 T00470011  RH  078%=      5-min Rain = 0
KCO2 150328Z 15006KT 05/01 A302 RMK A01 T00460011  RH  078%=      5-min Rain = 0
KCO2 150329Z 15007KT 05/01 A302 RMK A01 T00460011  RH  078%=      5-min Rain = 0
KCO2 150330Z 15006KT 05/01 A302 RMK A01 T00460011  RH  078%=      5-min Rain = 0
KCO2 150331Z 15007KT 05/01 A302 RMK A01 T00460012  RH  078%=      5-min Rain = 0
KCO2 150332Z 15006KT 05/01 A302 RMK A01 T00460011  RH  078%=      5-min Rain = 0
KCO2 150333Z 15006KT 05/01 A302 RMK A01 T00460012  RH  078%=      5-min Rain = 0
KCO2 150334Z 15007KT 05/01 A302 RMK A01 T00460012  RH  078%=      5-min Rain = 0
KCO2 150335Z 15007KT 05/01 A302 RMK A01 T00460012  RH  078%=      5-min Rain = 0
KCO2 150336Z 15007KT 05/01 A302 RMK A01 T00460012  RH  078%=      5-min Rain = 0
KCO2 150337Z 15007KT 05/01 A3019 RMK A01 T00460012  RH  079%=      5-min Rain = 0
KCO2 150338Z 15008KT 05/01 A3019 RMK A01 T00460013  RH  079%=      5-min Rain = 0
KCO2 150339Z 14008KT 05/01 A3019 RMK A01 T00470013  RH  079%=      5-min Rain = 0
KCO2 150340Z 14008KT 05/01 A3019 RMK A01 T00470013  RH  078%=      5-min Rain = 0
KCO2 150341Z 14008KT 05/01 A3019 RMK A01 T00470013  RH  078%=      5-min Rain = 0
KCO2 150342Z 14007KT 05/01 A3019 RMK A01 T00470013  RH  078%=      5-min Rain = 0
KCO2 150343Z 14007KT 05/01 A3019 RMK A01 T00470013  RH  078%=      5-min Rain = 0
KCO2 150344Z 14007KT 05/01 A3019 RMK A01 T00470013  RH  078%=      5-min Rain = 0
KCO2 150345Z 14007KT 05/01 A3019 RMK A01 T00470013  RH  078%=      5-min Rain = 0
KCO2 150346Z 14007KT 05/01 A3019 RMK A01 T00470013  RH  079%=      5-min Rain = 0
KCO2 150347Z 14007KT 05/01 A3019 RMK A01 T00470013  RH  079%=      5-min Rain = 0
KCO2 150348Z 14007KT 05/01 A3019 RMK A01 T00470013  RH  079%=      5-min Rain = 0
KCO2 150349Z 13007KT 05/01 A3019 RMK A01 T00460012  RH  079%=      5-min Rain = 0
KCO2 150350Z 13007KT 05/01 A3019 RMK A01 T00460013  RH  079%=      5-min Rain = 0
KCO2 150351Z 12007KT 05/01 A3019 RMK A01 T00450011  RH  079%=      5-min Rain = 0
KCO2 150352Z 11007KT 04/01 A302 RMK A01 T00430010  RH  079%=      5-min Rain = 0
KCO2 150353Z 12008KT 04/01 A302 RMK A01 T00400009  RH  080%=      5-min Rain = 0
KCO2 150354Z 12007KT 04/01 A302 RMK A01 T00380008  RH  081%=      5-min Rain = 0
KCO2 150355Z 13007KT 04/01 A3019 RMK A01 T00370009  RH  082%=      5-min Rain = 0
KCO2 150356Z 13007KT 04/01 A3019 RMK A01 T00360009  RH  083%=      5-min Rain = 0
KCO2 150357Z 14007KT 04/01 A3019 RMK A01 T00350009  RH  083%=      5-min Rain = 0
KCO2 150358Z 14007KT 04/01 A3019 RMK A01 T00350010  RH  083%=      5-min Rain = 0
KCO2 150359Z 14007KT 04/01 A3019 RMK A01 T00350010  RH  084%=      5-min Rain = 0
KCO2 150400Z 14008KT 04/01 A3019 RMK A01 T00350010  RH  084%=      5-min Rain = 0
KCO2 150401Z 14008KT 04/01 A3019 RMK A01 T00360011  RH  084%=      5-min Rain = 0
KCO2 150402Z 14006KT 04/01 A3019 RMK A01 T00370012  RH  084%=      5-min Rain = 0
KCO2 150403Z 14006KT 04/01 A3019 RMK A01 T00380012  RH  083%=      5-min Rain = 0
KCO2 150404Z 14006KT 04/01 A3019 RMK A01 T00390012  RH  083%=      5-min Rain = 0
KCO2 150405Z 15007KT 04/01 A3019 RMK A01 T00390012  RH  083%=      5-min Rain = 0
KCO2 150406Z 14007KT 04/01 A3019 RMK A01 T00390013  RH  083%=      5-min Rain = 0
KCO2 150407Z 15007KT 04/01 A3019 RMK A01 T00390013  RH  083%=      5-min Rain = 0
KCO2 150408Z 15007KT 04/02 A3019 RMK A01 T00410015  RH  083%=      5-min Rain = 0
KCO2 150409Z 15008KT 04/02 A3019 RMK A01 T00420016  RH  083%=      5-min Rain = 0
KCO2 150410Z 15008KT 04/02 A3019 RMK A01 T00440017  RH  082%=      5-min Rain = 0
KCO2 150411Z 15008KT 05/02 A3019 RMK A01 T00450017  RH  082%=      5-min Rain = 0
KCO2 150412Z 15008KT 05/02 A3019 RMK A01 T00460017  RH  081%=      5-min Rain = 0
KCO2 150413Z 16009KT 05/02 A3019 RMK A01 T00470017  RH  081%=      5-min Rain = 0
KCO2 150414Z 16009KT 05/02 A3019 RMK A01 T00480017  RH  081%=      5-min Rain = 0
KCO2 150415Z 15009KT 05/02 A3019 RMK A01 T00490018  RH  080%=      5-min Rain = 0
KCO2 150416Z 16009KT 05/02 A3019 RMK A01 T00500018  RH  080%=      5-min Rain = 0
KCO2 150417Z 15009KT 05/02 A3019 RMK A01 T00510018  RH  079%=      5-min Rain = 0
KCO2 150418Z 16009KT 05/02 A3019 RMK A01 T00510018  RH  079%=      5-min Rain = 0
KCO2 150419Z 16009KT 05/02 A3019 RMK A01 T00520018  RH  079%=      5-min Rain = 0
KCO2 150420Z 16009KT 05/02 A3019 RMK A01 T00520018  RH  079%=      5-min Rain = 0
KCO2 150421Z 16009KT 05/02 A3019 RMK A01 T00520018  RH  079%=      5-min Rain = 0
KCO2 150422Z 16009KT 05/02 A3019 RMK A01 T00530018  RH  078%=      5-min Rain = 0
KCO2 150423Z 16010KT 05/02 A3019 RMK A01 T00530018  RH  078%=      5-min Rain = 0
KCO2 150424Z 16010KT 05/02 A3019 RMK A01 T00530018  RH  078%=      5-min Rain = 0
KCO2 150425Z 16009KT 05/02 A3019 RMK A01 T00530018  RH  078%=      5-min Rain = 0
KCO2 150426Z 16009KT 05/02 A3019 RMK A01 T00530018  RH  078%=      5-min Rain = 0
KCO2 150427Z 16010KT 05/02 A3019 RMK A01 T00530018  RH  078%=      5-min Rain = 0
KCO2 150428Z 16010KT 05/02 A3019 RMK A01 T00530018  RH  078%=      5-min Rain = 0
KCO2 150429Z 16010KT 05/02 A3019 RMK A01 T00530018  RH  078%=      5-min Rain = 0
KCO2 150430Z 16010KT 05/02 A3019 RMK A01 T00530018  RH  078%=      5-min Rain = 0
KCO2 150431Z 16010KT 05/02 A3019 RMK A01 T00540018  RH  078%=      5-min Rain = 0
KCO2 150432Z 16011KT 06/02 A3019 RMK A01 T00550018  RH  077%=      5-min Rain = 0
KCO2 150433Z 16011KT 06/02 A3019 RMK A01 T00550018  RH  077%=      5-min Rain = 0
KCO2 150434Z 15009KT 06/02 A3019 RMK A01 T00560018  RH  077%=      5-min Rain = 0
KCO2 150435Z 16010KT 06/02 A3019 RMK A01 T00560018  RH  077%=      5-min Rain = 0
KCO2 150436Z 16010KT 06/02 A3019 RMK A01 T00560018  RH  077%=      5-min Rain = 0
KCO2 150437Z 16010KT 06/02 A3019 RMK A01 T00560018  RH  077%=      5-min Rain = 0
KCO2 150438Z 16011KT 06/02 A3019 RMK A01 T00570019  RH  076%=      5-min Rain = 0
KCO2 150439Z 16010KT 06/02 A3019 RMK A01 T00580019  RH  076%=      5-min Rain = 0
KCO2 150440Z 16010KT 06/02 A3019 RMK A01 T00580019  RH  076%=      5-min Rain = 0
KCO2 150441Z 16010KT 06/02 A3019 RMK A01 T00580019  RH  076%=      5-min Rain = 0
KCO2 150442Z 16010KT 06/02 A3018 RMK A01 T00580019  RH  076%=      5-min Rain = 0
KCO2 150443Z 16011KT 06/02 A3018 RMK A01 T00580019  RH  076%=      5-min Rain = 0
KCO2 150444Z 16011KT 06/02 A3018 RMK A01 T00580019  RH  076%=      5-min Rain = 0
KCO2 150445Z 16011KT 06/02 A3018 RMK A01 T00580019  RH  076%=      5-min Rain = 0
KCO2 150446Z 15011KT 06/02 A3018 RMK A01 T00580019  RH  076%=      5-min Rain = 0
KCO2 150447Z 16010KT 06/02 A3018 RMK A01 T00590019  RH  075%=      5-min Rain = 0
KCO2 150448Z 16011KT 06/02 A3018 RMK A01 T00580018  RH  076%=      5-min Rain = 0
KCO2 150449Z 16011KT 06/02 A3018 RMK A01 T00580019  RH  076%=      5-min Rain = 0
KCO2 150450Z 15011KT 06/02 A3018 RMK A01 T00580019  RH  076%=      5-min Rain = 0
KCO2 150451Z 16012KT 06/02 A3018 RMK A01 T00580018  RH  076%=      5-min Rain = 0
KCO2 150452Z 16011KT 06/02 A3018 RMK A01 T00590019  RH  075%=      5-min Rain = 0
KCO2 150453Z 16010KT 06/02 A3018 RMK A01 T00590018  RH  075%=      5-min Rain = 0
KCO2 150454Z 16013KT 06/02 A3018 RMK A01 T00590018  RH  075%=      5-min Rain = 0
KCO2 150455Z 16011KT 06/02 A3018 RMK A01 T00600019  RH  075%=      5-min Rain = 0
KCO2 150456Z 16010KT 06/02 A3018 RMK A01 T00610019  RH  075%=      5-min Rain = 0
KCO2 150457Z 16011KT 06/02 A3018 RMK A01 T00610019  RH  075%=      5-min Rain = 0
KCO2 150458Z 16011KT 06/02 A3018 RMK A01 T00610019  RH  074%=      5-min Rain = 0
KCO2 150459Z 16010KT 06/02 A3018 RMK A01 T00600019  RH  074%=      5-min Rain = 0
KCO2 150500Z 16011KT 06/02 A3018 RMK A01 T00610019  RH  074%=      5-min Rain = 0
KCO2 150501Z 16011KT 06/02 A3018 RMK A01 T00610018  RH  074%=      5-min Rain = 0
KCO2 150502Z 16011KT 06/02 A3018 RMK A01 T00610018  RH  074%=      5-min Rain = 0
KCO2 150503Z 16013KT 06/02 A3018 RMK A01 T00610018  RH  074%=      5-min Rain = 0
KCO2 150504Z 16012KT 06/02 A3018 RMK A01 T00610019  RH  074%=      5-min Rain = 0
KCO2 150505Z 17012KT 06/02 A3018 RMK A01 T00610018  RH  074%=      5-min Rain = 0
KCO2 150506Z 16012KT 06/02 A3018 RMK A01 T00620018  RH  074%=      5-min Rain = 0
KCO2 150507Z 16011KT 06/02 A3018 RMK A01 T00620018  RH  073%=      5-min Rain = 0
KCO2 150508Z 16011KT 06/02 A3018 RMK A01 T00620018  RH  073%=      5-min Rain = 0
KCO2 150509Z 17012KT 06/02 A3018 RMK A01 T00620018  RH  073%=      5-min Rain = 0
KCO2 150510Z 16011KT 06/02 A3018 RMK A01 T00620018  RH  073%=      5-min Rain = 0
KCO2 150511Z 17012KT 06/02 A3018 RMK A01 T00620018  RH  073%=      5-min Rain = 0
KCO2 150512Z 16012KT 06/02 A3018 RMK A01 T00620018  RH  073%=      5-min Rain = 0
KCO2 150513Z 16011KT 06/02 A3018 RMK A01 T00620018  RH  073%=      5-min Rain = 0
KCO2 150514Z 16012KT 06/02 A3018 RMK A01 T00630019  RH  073%=      5-min Rain = 0
KCO2 150515Z 16010KT 06/02 A3018 RMK A01 T00620018  RH  073%=      5-min Rain = 0
KCO2 150516Z 16010KT 06/02 A3018 RMK A01 T00620018  RH  073%=      5-min Rain = 0
KCO2 150517Z 16011KT 06/02 A3018 RMK A01 T00620018  RH  074%=      5-min Rain = 0
KCO2 150518Z 16010KT 06/02 A3018 RMK A01 T00610018  RH  074%=      5-min Rain = 0
KCO2 150519Z 16010KT 06/02 A3018 RMK A01 T00600018  RH  074%=      5-min Rain = 0
KCO2 150520Z 16010KT 06/02 A3018 RMK A01 T00600018  RH  074%=      5-min Rain = 0
KCO2 150521Z 16010KT 06/02 A3018 RMK A01 T00600019  RH  075%=      5-min Rain = 0
KCO2 150522Z 17010KT 06/02 A3018 RMK A01 T00590018  RH  075%=      5-min Rain = 0
KCO2 150523Z 17012KT 06/02 A3018 RMK A01 T00600019  RH  075%=      5-min Rain = 0
KCO2 150524Z 17011KT 06/02 A3018 RMK A01 T00610019  RH  075%=      5-min Rain = 0
KCO2 150525Z 17012KT 06/02 A3018 RMK A01 T00620020  RH  074%=      5-min Rain = 0
KCO2 150526Z 17011KT 06/02 A3018 RMK A01 T00620020  RH  074%=      5-min Rain = 0
KCO2 150527Z 17012KT 06/02 A3018 RMK A01 T00630020  RH  074%=      5-min Rain = 0
KCO2 150528Z 17011KT 06/02 A3018 RMK A01 T00640020  RH  074%=      5-min Rain = 0
KCO2 150529Z 17012KT 06/02 A3018 RMK A01 T00640020  RH  074%=      5-min Rain = 0
KCO2 150530Z 17010KT 07/02 A3018 RMK A01 T00650020  RH  073%=      5-min Rain = 0
KCO2 150531Z 17012KT 07/02 A3018 RMK A01 T00650020  RH  073%=      5-min Rain = 0
KCO2 150532Z 17012KT 07/02 A3018 RMK A01 T00650021  RH  073%=      5-min Rain = 0
KCO2 150533Z 18011KT 07/02 A3018 RMK A01 T00650021  RH  073%=      5-min Rain = 0
KCO2 150534Z 17010KT 07/02 A3018 RMK A01 T00660021  RH  073%=      5-min Rain = 0
KCO2 150535Z 18011KT 07/02 A3018 RMK A01 T00660021  RH  073%=      5-min Rain = 0
KCO2 150536Z 18013KT 07/02 A3018 RMK A01 T00660021  RH  073%=      5-min Rain = 0
KCO2 150537Z 18013KT 07/02 A3018 RMK A01 T00660021  RH  073%=      5-min Rain = 0
KCO2 150538Z 17011KT 07/02 A3018 RMK A01 T00680022  RH  072%=      5-min Rain = 0
KCO2 150539Z 17012KT 07/02 A3018 RMK A01 T00680021  RH  072%=      5-min Rain = 0
KCO2 150540Z 18010KT 07/02 A3018 RMK A01 T00680021  RH  072%=      5-min Rain = 0
KCO2 150541Z 17010KT 07/02 A3018 RMK A01 T00680021  RH  072%=      5-min Rain = 0
KCO2 150542Z 17011KT 07/02 A3018 RMK A01 T00670021  RH  072%=      5-min Rain = 0
KCO2 150543Z 18011KT 07/02 A3018 RMK A01 T00670021  RH  072%=      5-min Rain = 0
KCO2 150544Z 18014KT 07/02 A3018 RMK A01 T00670021  RH  073%=      5-min Rain = 0
KCO2 150545Z 18011KT 07/02 A3018 RMK A01 T00670021  RH  073%=      5-min Rain = 0
KCO2 150546Z 18012G17KT 07/02 A3018 RMK A01 T00680021  RH  072%=      5-min Rain = 0
KCO2 150547Z 17012KT 07/02 A3018 RMK A01 T00680021  RH  072%=      5-min Rain = 0
KCO2 150548Z 17011KT 07/02 A3018 RMK A01 T00680021  RH  072%=      5-min Rain = 0
KCO2 150549Z 18010KT 07/02 A3018 RMK A01 T00680021  RH  072%=      5-min Rain = 0
KCO2 150550Z 17010KT 07/02 A3018 RMK A01 T00670021  RH  072%=      5-min Rain = 0
KCO2 150551Z 18009KT 07/02 A3018 RMK A01 T00660021  RH  073%=      5-min Rain = 0
KCO2 150552Z 17011KT 07/02 A3018 RMK A01 T00650020  RH  073%=      5-min Rain = 0
KCO2 150553Z 17010KT 07/02 A3018 RMK A01 T00650020  RH  073%=      5-min Rain = 0
KCO2 150554Z 17009G14KT 07/02 A3018 RMK A01 T00650020  RH  073%=      5-min Rain = 0
KCO2 150555Z 17012KT 07/02 A3018 RMK A01 T00650021  RH  073%=      5-min Rain = 0
KCO2 150556Z 17010KT 07/02 A3018 RMK A01 T00650020  RH  073%=      5-min Rain = 0
KCO2 150557Z 17010KT 07/02 A3017 RMK A01 T00650020  RH  073%=      5-min Rain = 0
KCO2 150558Z 16009KT 07/02 A3017 RMK A01 T00650020  RH  073%=      5-min Rain = 0
KCO2 150559Z 17009KT 06/02 A3017 RMK A01 T00640020  RH  073%=      5-min Rain = 0

Page generated in 0.0719 seconds.